Time,TemperatureF,DewpointF,PressureIn,WindDirection,WindDirectionDegrees,WindSpeedMPH,WindSpeedGustMPH,Humidity,HourlyPrecipIn,Conditions,Clouds,dailyrainin,SoftwareType,DateUTC
2013-08-01 00:01:00,64.3,63.7,29.84,NNW,330,0.0,0.0,98,0.00,,---,0.00,VWS V14.01,2013-08-01 05:01:00,
2013-08-01 00:03:00,64.3,63.7,29.84,NNW,330,0.0,0.0,98,0.00,,---,0.00,VWS V14.01,2013-08-01 05:03:00,
2013-08-01 00:07:00,64.3,64.0,29.84,NNW,330,0.0,0.0,99,0.00,,---,0.00,VWS V14.01,2013-08-01 05:07:00,
2013-08-01 00:08:00,64.3,64.0,29.84,NNW,330,0.0,0.0,99,0.00,,---,0.00,VWS V14.01,2013-08-01 05:08:00,
2013-08-01 00:11:00,64.5,63.9,29.84,NNW,330,0.0,0.0,98,0.00,,---,0.00,VWS V14.01,2013-08-01 05:11:00,
2013-08-01 00:13:00,64.5,63.9,29.84,NNW,330,0.0,0.0,98,0.00,,---,0.00,VWS V14.01,2013-08-01 05:13:00,
2013-08-01 00:14:00,64.5,63.9,29.83,NNW,330,0.0,0.0,98,0.00,,---,0.00,VWS V14.01,2013-08-01 05:14:00,
2013-08-01 00:17:00,64.5,63.9,29.83,NNW,330,0.0,0.0,98,0.00,,---,0.00,VWS V14.01,2013-08-01 05:17:00,
2013-08-01 00:18:00,64.5,63.9,29.83,NNW,330,0.0,0.0,98,0.00,,---,0.00,VWS V14.01,2013-08-01 05:18:00,
2013-08-01 00:19:00,64.5,63.9,29.83,NNW,330,0.0,0.0,98,0.00,,---,0.00,VWS V14.01,2013-08-01 05:19:00,
2013-08-01 00:21:00,64.5,63.9,29.83,NNW,330,0.0,0.0,98,0.00,,---,0.00,VWS V14.01,2013-08-01 05:21:00,
2013-08-01 00:23:00,64.5,63.9,29.83,NNW,330,0.0,0.0,98,0.00,,---,0.00,VWS V14.01,2013-08-01 05:23:00,
2013-08-01 00:25:00,64.5,63.9,29.83,NNW,330,0.0,0.0,98,0.00,,---,0.00,VWS V14.01,2013-08-01 05:25:00,
2013-08-01 00:26:00,64.5,63.9,29.83,NNW,330,0.0,0.0,98,0.00,,---,0.00,VWS V14.01,2013-08-01 05:26:00,
2013-08-01 00:28:00,64.3,63.7,29.83,NNW,330,0.0,0.0,98,0.00,,---,0.00,VWS V14.01,2013-08-01 05:28:00,
2013-08-01 00:32:00,64.3,63.7,29.84,NNW,330,0.0,0.0,98,0.00,,---,0.00,VWS V14.01,2013-08-01 05:32:00,
2013-08-01 00:33:00,64.3,63.7,29.84,NNW,330,0.0,0.0,98,0.00,,---,0.00,VWS V14.01,2013-08-01 05:33:00,
2013-08-01 00:34:00,64.3,63.7,29.84,NNW,330,0.0,0.0,98,0.00,,---,0.00,VWS V14.01,2013-08-01 05:34:00,
2013-08-01 00:35:00,64.3,63.7,29.84,NNW,330,0.0,0.0,98,0.00,,---,0.00,VWS V14.01,2013-08-01 05:35:00,
2013-08-01 00:38:00,64.3,63.7,29.84,NNW,330,0.0,0.0,98,0.00,,---,0.00,VWS V14.01,2013-08-01 05:38:00,
2013-08-01 00:40:00,64.2,63.6,29.84,NNW,330,0.0,0.0,98,0.00,,---,0.00,VWS V14.01,2013-08-01 05:40:00,
2013-08-01 00:41:00,64.2,63.6,29.84,NNW,330,0.0,0.0,98,0.00,,---,0.00,VWS V14.01,2013-08-01 05:41:00,
2013-08-01 00:44:00,64.2,63.6,29.84,SW,214,1.0,1.0,98,0.00,,---,0.00,VWS V14.01,2013-08-01 05:44:00,
2013-08-01 00:46:00,64.2,63.6,29.84,SW,214,0.0,1.0,98,0.00,,---,0.00,VWS V14.01,2013-08-01 05:46:00,
2013-08-01 00:49:00,64.0,63.4,29.84,SW,214,0.0,0.0,98,0.00,,---,0.00,VWS V14.01,2013-08-01 05:49:00,
2013-08-01 00:50:00,64.0,63.4,29.84,SW,214,0.0,0.0,98,0.00,,---,0.00,VWS V14.01,2013-08-01 05:50:00,
2013-08-01 00:51:00,64.0,63.4,29.84,SW,214,0.0,0.0,98,0.00,,---,0.00,VWS V14.01,2013-08-01 05:51:00,
2013-08-01 00:54:00,63.9,63.3,29.84,SW,214,0.0,0.0,98,0.00,,---,0.00,VWS V14.01,2013-08-01 05:54:00,
2013-08-01 00:55:00,63.9,63.3,29.84,SW,214,0.0,0.0,98,0.00,,---,0.00,VWS V14.01,2013-08-01 05:55:00,
2013-08-01 00:56:00,63.9,63.3,29.84,SW,214,0.0,0.0,98,0.00,,---,0.00,VWS V14.01,2013-08-01 05:56:00,
2013-08-01 00:57:00,63.9,63.3,29.84,SW,214,0.0,0.0,98,0.00,,---,0.00,VWS V14.01,2013-08-01 05:57:00,
2013-08-01 00:59:00,63.7,63.1,29.84,SW,214,0.0,0.0,98,0.00,,---,0.00,VWS V14.01,2013-08-01 05:59:00,
2013-08-01 01:01:00,63.7,63.1,29.84,SW,214,0.0,0.0,98,0.00,,---,0.00,VWS V14.01,2013-08-01 06:01:00,
2013-08-01 01:02:00,63.7,63.1,29.84,SW,214,0.0,0.0,98,0.00,,---,0.00,VWS V14.01,2013-08-01 06:02:00,
2013-08-01 01:03:00,63.7,63.1,29.84,SW,214,0.0,0.0,98,0.00,,---,0.00,VWS V14.01,2013-08-01 06:03:00,
2013-08-01 01:04:00,63.7,63.1,29.84,SW,214,0.0,1.0,98,0.00,,---,0.00,VWS V14.01,2013-08-01 06:04:00,
2013-08-01 01:06:00,63.5,62.9,29.84,SW,214,0.0,0.0,98,0.00,,---,0.00,VWS V14.01,2013-08-01 06:06:00,
2013-08-01 01:08:00,63.5,62.9,29.84,SW,214,0.0,0.0,98,0.00,,---,0.00,VWS V14.01,2013-08-01 06:08:00,
2013-08-01 01:09:00,63.5,62.9,29.84,SW,214,0.0,0.0,98,0.00,,---,0.00,VWS V14.01,2013-08-01 06:09:00,
2013-08-01 01:11:00,63.5,62.9,29.84,SW,214,0.0,0.0,98,0.00,,---,0.00,VWS V14.01,2013-08-01 06:11:00,
2013-08-01 01:13:00,63.4,62.8,29.84,SW,214,0.0,0.0,98,0.00,,---,0.00,VWS V14.01,2013-08-01 06:13:00,
2013-08-01 01:15:00,63.4,62.8,29.84,SW,214,0.0,0.0,98,0.00,,---,0.00,VWS V14.01,2013-08-01 06:15:00,
2013-08-01 01:16:00,63.4,62.8,29.84,SW,214,0.0,0.0,98,0.00,,---,0.00,VWS V14.01,2013-08-01 06:16:00,
2013-08-01 01:17:00,63.4,62.8,29.84,SW,214,0.0,0.0,98,0.00,,---,0.00,VWS V14.01,2013-08-01 06:17:00,
2013-08-01 01:21:00,63.4,62.8,29.84,SW,214,0.0,0.0,98,0.00,,---,0.00,VWS V14.01,2013-08-01 06:21:00,
2013-08-01 01:22:00,63.4,62.8,29.84,SW,214,0.0,0.0,98,0.00,,---,0.00,VWS V14.01,2013-08-01 06:22:00,
2013-08-01 01:25:00,63.2,62.6,29.84,SW,214,0.0,0.0,98,0.00,,---,0.00,VWS V14.01,2013-08-01 06:25:00,
2013-08-01 01:27:00,63.2,62.6,29.84,SW,214,0.0,0.0,98,0.00,,---,0.00,VWS V14.01,2013-08-01 06:27:00,
2013-08-01 01:28:00,63.2,62.6,29.84,SW,214,0.0,0.0,98,0.00,,---,0.00,VWS V14.01,2013-08-01 06:28:00,
2013-08-01 01:30:00,63.2,62.6,29.83,SW,214,0.0,0.0,98,0.00,,---,0.00,VWS V14.01,2013-08-01 06:30:00,
2013-08-01 01:32:00,63.2,62.6,29.83,SW,214,0.0,0.0,98,0.00,,---,0.00,VWS V14.01,2013-08-01 06:32:00,
2013-08-01 01:33:00,63.2,62.6,29.83,SW,214,0.0,0.0,98,0.00,,---,0.00,VWS V14.01,2013-08-01 06:33:00,
2013-08-01 01:34:00,63.2,62.6,29.83,SW,214,0.0,0.0,98,0.00,,---,0.00,VWS V14.01,2013-08-01 06:34:00,
2013-08-01 01:35:00,63.1,62.5,29.83,SW,214,0.0,0.0,98,0.00,,---,0.00,VWS V14.01,2013-08-01 06:35:00,
2013-08-01 01:37:00,63.1,62.5,29.83,SW,214,0.0,0.0,98,0.00,,---,0.00,VWS V14.01,2013-08-01 06:37:00,
2013-08-01 01:38:00,63.1,62.5,29.83,SW,214,0.0,0.0,98,0.00,,---,0.00,VWS V14.01,2013-08-01 06:38:00,
2013-08-01 01:39:00,63.1,62.5,29.83,SW,214,0.0,0.0,98,0.00,,---,0.00,VWS V14.01,2013-08-01 06:39:00,
2013-08-01 01:40:00,63.1,62.5,29.83,SW,214,0.0,0.0,98,0.00,,---,0.00,VWS V14.01,2013-08-01 06:40:00,
2013-08-01 01:41:00,63.1,62.5,29.83,SW,214,0.0,0.0,98,0.00,,---,0.00,VWS V14.01,2013-08-01 06:41:00,
2013-08-01 01:43:00,62.9,62.3,29.83,SW,214,0.0,0.0,98,0.00,,---,0.00,VWS V14.01,2013-08-01 06:43:00,
2013-08-01 01:46:00,62.9,62.3,29.82,SW,214,0.0,0.0,98,0.00,,---,0.00,VWS V14.01,2013-08-01 06:46:00,
2013-08-01 01:47:00,62.9,62.3,29.82,SW,214,0.0,0.0,98,0.00,,---,0.00,VWS V14.01,2013-08-01 06:47:00,
2013-08-01 01:51:00,62.7,62.1,29.82,SW,214,0.0,0.0,98,0.00,,---,0.00,VWS V14.01,2013-08-01 06:51:00,
2013-08-01 01:54:00,62.6,62.0,29.82,SW,214,0.0,0.0,98,0.00,,---,0.00,VWS V14.01,2013-08-01 06:54:00,
2013-08-01 01:55:00,62.6,62.0,29.82,SW,214,0.0,0.0,98,0.00,,---,0.00,VWS V14.01,2013-08-01 06:55:00,
2013-08-01 01:56:00,62.6,62.0,29.82,SW,214,0.0,0.0,98,0.00,,---,0.00,VWS V14.01,2013-08-01 06:56:00,
2013-08-01 01:59:00,62.6,62.0,29.82,SW,214,0.0,0.0,98,0.00,,---,0.00,VWS V14.01,2013-08-01 06:59:00,
2013-08-01 02:01:00,62.6,62.0,29.82,SW,214,0.0,0.0,98,0.00,,---,0.00,VWS V14.01,2013-08-01 07:01:00,
2013-08-01 02:02:00,62.6,62.0,29.82,SW,214,0.0,0.0,98,0.00,,---,0.00,VWS V14.01,2013-08-01 07:02:00,
2013-08-01 02:03:00,62.4,61.8,29.82,SW,214,0.0,0.0,98,0.00,,---,0.00,VWS V14.01,2013-08-01 07:03:00,
2013-08-01 02:04:00,62.4,61.8,29.82,SW,214,0.0,0.0,98,0.00,,---,0.00,VWS V14.01,2013-08-01 07:04:00,
2013-08-01 02:07:00,62.3,61.7,29.82,SW,214,0.0,0.0,98,0.00,,---,0.00,VWS V14.01,2013-08-01 07:07:00,
2013-08-01 02:09:00,62.3,61.7,29.82,SW,214,0.0,0.0,98,0.00,,---,0.00,VWS V14.01,2013-08-01 07:09:00,
2013-08-01 02:10:00,62.1,61.5,29.82,SW,214,0.0,0.0,98,0.00,,---,0.00,VWS V14.01,2013-08-01 07:10:00,
2013-08-01 02:15:00,62.0,61.4,29.82,SW,214,0.0,0.0,98,0.00,,---,0.00,VWS V14.01,2013-08-01 07:15:00,
2013-08-01 02:16:00,62.0,61.4,29.82,SW,214,0.0,0.0,98,0.00,,---,0.00,VWS V14.01,2013-08-01 07:16:00,
2013-08-01 02:18:00,62.0,61.4,29.82,SW,214,0.0,0.0,98,0.00,,---,0.00,VWS V14.01,2013-08-01 07:18:00,
2013-08-01 02:20:00,62.0,61.4,29.82,SW,214,0.0,0.0,98,0.00,,---,0.00,VWS V14.01,2013-08-01 07:20:00,
2013-08-01 02:23:00,62.0,61.4,29.82,SW,214,0.0,0.0,98,0.00,,---,0.00,VWS V14.01,2013-08-01 07:23:00,
2013-08-01 02:25:00,62.0,61.4,29.82,SW,214,0.0,0.0,98,0.00,,---,0.00,VWS V14.01,2013-08-01 07:25:00,
2013-08-01 02:26:00,62.0,61.4,29.82,SW,214,0.0,0.0,98,0.00,,---,0.00,VWS V14.01,2013-08-01 07:26:00,
2013-08-01 02:27:00,62.0,61.4,29.82,SW,214,0.0,0.0,98,0.00,,---,0.00,VWS V14.01,2013-08-01 07:27:00,
2013-08-01 02:29:00,62.0,61.4,29.82,SW,214,0.0,0.0,98,0.00,,---,0.00,VWS V14.01,2013-08-01 07:29:00,
2013-08-01 02:30:00,62.0,61.4,29.82,SW,214,0.0,0.0,98,0.00,,---,0.00,VWS V14.01,2013-08-01 07:30:00,
2013-08-01 02:32:00,62.0,61.4,29.82,SW,214,0.0,0.0,98,0.00,,---,0.00,VWS V14.01,2013-08-01 07:32:00,
2013-08-01 02:33:00,62.0,61.4,29.82,SW,214,0.0,0.0,98,0.00,,---,0.00,VWS V14.01,2013-08-01 07:33:00,
2013-08-01 02:34:00,61.8,61.2,29.82,SW,214,0.0,0.0,98,0.00,,---,0.00,VWS V14.01,2013-08-01 07:34:00,
2013-08-01 02:36:00,61.8,61.2,29.82,SW,214,0.0,0.0,98,0.00,,---,0.00,VWS V14.01,2013-08-01 07:36:00,
2013-08-01 02:37:00,61.8,61.2,29.82,SW,214,0.0,0.0,98,0.00,,---,0.00,VWS V14.01,2013-08-01 07:37:00,
2013-08-01 02:38:00,61.8,61.2,29.82,SW,214,0.0,0.0,98,0.00,,---,0.00,VWS V14.01,2013-08-01 07:38:00,
2013-08-01 02:40:00,61.8,61.2,29.82,SW,214,0.0,0.0,98,0.00,,---,0.00,VWS V14.01,2013-08-01 07:40:00,
2013-08-01 02:42:00,61.8,61.5,29.82,SW,214,0.0,0.0,99,0.00,,---,0.00,VWS V14.01,2013-08-01 07:42:00,
2013-08-01 02:43:00,61.8,61.5,29.82,SW,214,0.0,0.0,99,0.00,,---,0.00,VWS V14.01,2013-08-01 07:43:00,
2013-08-01 02:45:00,61.8,61.5,29.82,SW,214,0.0,0.0,99,0.00,,---,0.00,VWS V14.01,2013-08-01 07:45:00,
2013-08-01 02:47:00,61.8,61.5,29.82,SW,214,0.0,0.0,99,0.00,,---,0.00,VWS V14.01,2013-08-01 07:47:00,
2013-08-01 02:49:00,61.8,61.5,29.82,SW,214,0.0,0.0,99,0.00,,---,0.00,VWS V14.01,2013-08-01 07:49:00,
2013-08-01 02:50:00,61.8,61.5,29.82,SW,214,0.0,0.0,99,0.00,,---,0.00,VWS V14.01,2013-08-01 07:50:00,
2013-08-01 02:53:00,62.0,61.7,29.82,SW,214,0.0,0.0,99,0.00,,---,0.00,VWS V14.01,2013-08-01 07:53:00,
2013-08-01 02:56:00,62.0,61.7,29.82,SW,214,0.0,0.0,99,0.00,,---,0.00,VWS V14.01,2013-08-01 07:56:00,
2013-08-01 02:58:00,62.0,61.7,29.82,SW,214,0.0,0.0,99,0.00,,---,0.00,VWS V14.01,2013-08-01 07:58:00,
2013-08-01 02:59:00,62.0,61.7,29.82,SW,214,0.0,0.0,99,0.00,,---,0.00,VWS V14.01,2013-08-01 07:59:00,
2013-08-01 03:02:00,62.0,61.7,29.82,SW,214,0.0,0.0,99,0.00,,---,0.00,VWS V14.01,2013-08-01 08:02:00,
2013-08-01 03:04:00,61.8,61.5,29.82,SW,214,0.0,0.0,99,0.00,,---,0.00,VWS V14.01,2013-08-01 08:04:00,
2013-08-01 03:07:00,61.8,61.5,29.82,SW,214,0.0,0.0,99,0.00,,---,0.00,VWS V14.01,2013-08-01 08:07:00,
2013-08-01 03:08:00,61.8,61.5,29.82,SW,214,0.0,0.0,99,0.00,,---,0.00,VWS V14.01,2013-08-01 08:08:00,
2013-08-01 03:12:00,61.8,61.5,29.82,SW,214,0.0,0.0,99,0.00,,---,0.00,VWS V14.01,2013-08-01 08:12:00,
2013-08-01 03:15:00,61.8,61.5,29.82,SW,214,0.0,0.0,99,0.00,,---,0.00,VWS V14.01,2013-08-01 08:15:00,
2013-08-01 03:16:00,61.8,61.5,29.82,SW,214,0.0,0.0,99,0.00,,---,0.00,VWS V14.01,2013-08-01 08:16:00,
2013-08-01 03:17:00,62.0,61.7,29.82,SW,214,0.0,0.0,99,0.00,,---,0.00,VWS V14.01,2013-08-01 08:17:00,
2013-08-01 03:21:00,62.0,61.7,29.82,SW,214,0.0,0.0,99,0.00,,---,0.00,VWS V14.01,2013-08-01 08:21:00,
2013-08-01 03:23:00,62.0,61.7,29.82,SW,214,0.0,0.0,99,0.00,,---,0.00,VWS V14.01,2013-08-01 08:23:00,
2013-08-01 03:24:00,62.0,61.7,29.82,SW,214,1.0,1.0,99,0.00,,---,0.00,VWS V14.01,2013-08-01 08:24:00,
2013-08-01 03:27:00,62.1,61.8,29.82,SW,214,0.0,0.0,99,0.00,,---,0.00,VWS V14.01,2013-08-01 08:27:00,
2013-08-01 03:28:00,62.1,61.8,29.82,SW,214,0.0,0.0,99,0.00,,---,0.00,VWS V14.01,2013-08-01 08:28:00,
2013-08-01 03:29:00,62.1,61.8,29.82,SW,214,0.0,0.0,99,0.00,,---,0.00,VWS V14.01,2013-08-01 08:29:00,
2013-08-01 03:32:00,62.1,61.8,29.82,SW,214,0.0,0.0,99,0.00,,---,0.00,VWS V14.01,2013-08-01 08:32:00,
2013-08-01 03:34:00,62.1,61.8,29.82,SW,214,0.0,0.0,99,0.00,,---,0.00,VWS V14.01,2013-08-01 08:34:00,
2013-08-01 03:35:00,62.1,61.8,29.82,SW,214,0.0,0.0,99,0.00,,---,0.00,VWS V14.01,2013-08-01 08:35:00,
2013-08-01 03:37:00,62.0,61.7,29.82,SW,214,0.0,0.0,99,0.00,,---,0.00,VWS V14.01,2013-08-01 08:37:00,
2013-08-01 03:39:00,62.0,61.7,29.82,SW,214,0.0,0.0,99,0.00,,---,0.00,VWS V14.01,2013-08-01 08:39:00,
2013-08-01 03:41:00,62.0,61.7,29.82,SW,214,0.0,0.0,99,0.00,,---,0.00,VWS V14.01,2013-08-01 08:41:00,
2013-08-01 03:44:00,62.0,61.7,29.82,SW,214,0.0,0.0,99,0.00,,---,0.00,VWS V14.01,2013-08-01 08:44:00,
2013-08-01 03:50:00,61.8,61.5,29.82,SW,214,0.0,0.0,99,0.00,,---,0.00,VWS V14.01,2013-08-01 08:50:00,
2013-08-01 03:52:00,61.8,61.5,29.82,SW,214,0.0,0.0,99,0.00,,---,0.00,VWS V14.01,2013-08-01 08:52:00,
2013-08-01 03:56:00,61.8,61.5,29.82,SW,214,0.0,0.0,99,0.01,,---,0.01,VWS V14.01,2013-08-01 08:56:00,
2013-08-01 03:59:00,61.6,61.3,29.82,SW,214,0.0,0.0,99,0.01,,---,0.01,VWS V14.01,2013-08-01 08:59:00,
2013-08-01 04:00:00,61.6,61.3,29.82,SW,214,0.0,0.0,99,0.01,,---,0.01,VWS V14.01,2013-08-01 09:00:00,
2013-08-01 04:04:00,61.3,61.0,29.82,SW,214,0.0,0.0,99,0.01,,---,0.01,VWS V14.01,2013-08-01 09:04:00,
2013-08-01 04:07:00,61.3,61.0,29.82,SW,214,0.0,0.0,99,0.01,,---,0.01,VWS V14.01,2013-08-01 09:07:00,
2013-08-01 04:09:00,61.2,60.9,29.82,SW,214,0.0,0.0,99,0.01,,---,0.01,VWS V14.01,2013-08-01 09:09:00,
2013-08-01 04:12:00,61.2,60.9,29.82,SW,214,0.0,0.0,99,0.01,,---,0.01,VWS V14.01,2013-08-01 09:12:00,
2013-08-01 04:14:00,61.2,60.9,29.82,SW,214,0.0,0.0,99,0.01,,---,0.01,VWS V14.01,2013-08-01 09:14:00,
2013-08-01 04:17:00,61.0,60.7,29.82,SW,214,0.0,0.0,99,0.01,,---,0.01,VWS V14.01,2013-08-01 09:17:00,
2013-08-01 04:20:00,60.9,60.6,29.82,SW,214,0.0,0.0,99,0.01,,---,0.01,VWS V14.01,2013-08-01 09:20:00,
2013-08-01 04:22:00,60.9,60.6,29.82,SW,214,0.0,0.0,99,0.01,,---,0.01,VWS V14.01,2013-08-01 09:22:00,
2013-08-01 04:27:00,60.7,60.4,29.82,SW,214,0.0,0.0,99,0.01,,---,0.01,VWS V14.01,2013-08-01 09:27:00,
2013-08-01 04:29:00,60.7,60.4,29.82,SW,214,0.0,0.0,99,0.01,,---,0.01,VWS V14.01,2013-08-01 09:29:00,
2013-08-01 04:30:00,60.7,60.4,29.82,SW,214,0.0,0.0,99,0.01,,---,0.01,VWS V14.01,2013-08-01 09:30:00,
2013-08-01 04:32:00,60.7,60.4,29.82,SW,214,0.0,0.0,99,0.01,,---,0.01,VWS V14.01,2013-08-01 09:32:00,
2013-08-01 04:35:00,60.9,60.6,29.82,SW,214,0.0,0.0,99,0.01,,---,0.01,VWS V14.01,2013-08-01 09:35:00,
2013-08-01 04:37:00,60.9,60.6,29.82,SW,214,0.0,0.0,99,0.01,,---,0.01,VWS V14.01,2013-08-01 09:37:00,
2013-08-01 04:41:00,60.7,60.4,29.82,SW,214,0.0,0.0,99,0.01,,---,0.01,VWS V14.01,2013-08-01 09:41:00,
2013-08-01 04:44:00,60.7,60.4,29.82,SW,214,0.0,0.0,99,0.01,,---,0.01,VWS V14.01,2013-08-01 09:44:00,
2013-08-01 04:49:00,60.5,60.2,29.82,SW,214,0.0,0.0,99,0.01,,---,0.01,VWS V14.01,2013-08-01 09:49:00,
2013-08-01 04:51:00,60.5,60.2,29.82,SW,214,0.0,0.0,99,0.01,,---,0.01,VWS V14.01,2013-08-01 09:51:00,
2013-08-01 04:55:00,60.4,60.1,29.82,SW,214,0.0,0.0,99,0.00,,---,0.01,VWS V14.01,2013-08-01 09:55:00,
2013-08-01 04:58:00,60.4,60.1,29.82,SW,214,0.0,0.0,99,0.00,,---,0.01,VWS V14.01,2013-08-01 09:58:00,
2013-08-01 04:59:00,60.4,60.1,29.82,SW,214,0.0,0.0,99,0.00,,---,0.01,VWS V14.01,2013-08-01 09:59:00,
2013-08-01 05:03:00,60.4,60.1,29.83,SW,214,0.0,0.0,99,0.00,,---,0.01,VWS V14.01,2013-08-01 10:03:00,
2013-08-01 05:07:00,60.4,60.1,29.83,SW,214,0.0,0.0,99,0.00,,---,0.01,VWS V14.01,2013-08-01 10:07:00,
2013-08-01 05:08:00,60.2,59.9,29.83,SW,214,0.0,0.0,99,0.00,,---,0.01,VWS V14.01,2013-08-01 10:08:00,
2013-08-01 05:12:00,60.1,59.8,29.83,SW,214,0.0,0.0,99,0.00,,---,0.01,VWS V14.01,2013-08-01 10:12:00,
2013-08-01 05:14:00,60.1,59.8,29.83,SW,214,0.0,0.0,99,0.00,,---,0.01,VWS V14.01,2013-08-01 10:14:00,
2013-08-01 05:18:00,59.9,59.6,29.83,SW,214,0.0,0.0,99,0.00,,---,0.01,VWS V14.01,2013-08-01 10:18:00,
2013-08-01 05:20:00,59.9,59.6,29.83,SW,214,0.0,0.0,99,0.00,,---,0.01,VWS V14.01,2013-08-01 10:20:00,
2013-08-01 05:21:00,59.9,59.6,29.83,SW,214,0.0,0.0,99,0.00,,---,0.01,VWS V14.01,2013-08-01 10:21:00,
2013-08-01 05:25:00,59.8,59.5,29.83,SW,214,0.0,0.0,99,0.00,,---,0.01,VWS V14.01,2013-08-01 10:25:00,
2013-08-01 05:26:00,59.8,59.5,29.83,SW,214,0.0,0.0,99,0.00,,---,0.01,VWS V14.01,2013-08-01 10:26:00,
2013-08-01 05:30:00,59.8,59.5,29.83,SW,214,0.0,0.0,99,0.00,,---,0.01,VWS V14.01,2013-08-01 10:30:00,
2013-08-01 05:33:00,59.6,59.3,29.83,SW,214,0.0,0.0,99,0.00,,---,0.01,VWS V14.01,2013-08-01 10:33:00,
2013-08-01 05:38:00,59.5,59.2,29.83,SW,214,0.0,0.0,99,0.00,,---,0.01,VWS V14.01,2013-08-01 10:38:00,
2013-08-01 05:39:00,59.3,59.0,29.83,SW,214,0.0,0.0,99,0.00,,---,0.01,VWS V14.01,2013-08-01 10:39:00,
2013-08-01 05:43:00,59.2,58.9,29.83,SW,214,0.0,0.0,99,0.00,,---,0.01,VWS V14.01,2013-08-01 10:43:00,
2013-08-01 05:46:00,59.0,58.7,29.84,SW,214,0.0,0.0,99,0.00,,---,0.01,VWS V14.01,2013-08-01 10:46:00,
2013-08-01 05:47:00,59.0,58.7,29.84,SW,214,0.0,0.0,99,0.00,,---,0.01,VWS V14.01,2013-08-01 10:47:00,
2013-08-01 05:48:00,59.0,58.7,29.84,SW,214,0.0,0.0,99,0.00,,---,0.01,VWS V14.01,2013-08-01 10:48:00,
2013-08-01 05:51:00,58.9,58.6,29.84,SW,214,0.0,0.0,99,0.00,,---,0.01,VWS V14.01,2013-08-01 10:51:00,
2013-08-01 05:53:00,58.9,58.6,29.84,SW,214,0.0,0.0,99,0.00,,---,0.01,VWS V14.01,2013-08-01 10:53:00,
2013-08-01 05:55:00,58.9,58.6,29.84,SW,214,0.0,0.0,99,0.00,,---,0.01,VWS V14.01,2013-08-01 10:55:00,
2013-08-01 06:00:00,58.7,58.4,29.84,SW,214,0.0,0.0,99,0.00,,---,0.01,VWS V14.01,2013-08-01 11:00:00,
2013-08-01 06:02:00,58.7,58.4,29.84,SW,214,0.0,0.0,99,0.00,,---,0.01,VWS V14.01,2013-08-01 11:02:00,
2013-08-01 06:05:00,58.6,58.3,29.84,SW,214,0.0,0.0,99,0.00,,---,0.01,VWS V14.01,2013-08-01 11:05:00,
2013-08-01 06:08:00,58.6,58.3,29.84,SW,214,0.0,0.0,99,0.00,,---,0.01,VWS V14.01,2013-08-01 11:08:00,
2013-08-01 06:09:00,58.6,58.3,29.84,SW,214,0.0,0.0,99,0.00,,---,0.01,VWS V14.01,2013-08-01 11:09:00,
2013-08-01 06:14:00,58.6,58.3,29.84,SW,214,0.0,0.0,99,0.00,,---,0.01,VWS V14.01,2013-08-01 11:14:00,
2013-08-01 06:15:00,58.6,58.3,29.85,SW,214,0.0,0.0,99,0.00,,---,0.01,VWS V14.01,2013-08-01 11:15:00,
2013-08-01 06:18:00,58.6,58.6,29.85,SW,214,0.0,0.0,100,0.00,,---,0.01,VWS V14.01,2013-08-01 11:18:00,
2013-08-01 06:19:00,58.7,58.7,29.85,SW,214,0.0,0.0,100,0.00,,---,0.01,VWS V14.01,2013-08-01 11:19:00,
2013-08-01 06:23:00,58.7,58.7,29.85,SW,214,0.0,0.0,100,0.00,,---,0.01,VWS V14.01,2013-08-01 11:23:00,
2013-08-01 06:27:00,59.0,59.0,29.85,SW,214,0.0,0.0,100,0.00,,---,0.01,VWS V14.01,2013-08-01 11:27:00,
2013-08-01 06:28:00,59.0,59.0,29.85,SW,214,0.0,0.0,100,0.00,,---,0.01,VWS V14.01,2013-08-01 11:28:00,
2013-08-01 06:33:00,59.3,59.3,29.85,SW,214,0.0,0.0,100,0.00,,---,0.01,VWS V14.01,2013-08-01 11:33:00,
2013-08-01 06:39:00,59.6,59.6,29.85,SW,214,0.0,0.0,100,0.00,,---,0.01,VWS V14.01,2013-08-01 11:39:00,
2013-08-01 06:42:00,59.9,59.9,29.85,SW,214,0.0,0.0,100,0.00,,---,0.01,VWS V14.01,2013-08-01 11:42:00,
2013-08-01 06:43:00,59.9,59.9,29.85,SW,214,0.0,0.0,100,0.00,,---,0.01,VWS V14.01,2013-08-01 11:43:00,
2013-08-01 06:47:00,60.2,60.2,29.85,SW,214,0.0,0.0,100,0.00,,---,0.01,VWS V14.01,2013-08-01 11:47:00,
2013-08-01 06:48:00,60.4,60.4,29.85,SW,214,0.0,0.0,100,0.00,,---,0.01,VWS V14.01,2013-08-01 11:48:00,
2013-08-01 06:53:00,60.5,60.5,29.85,SW,214,0.0,0.0,100,0.00,,---,0.01,VWS V14.01,2013-08-01 11:53:00,
2013-08-01 06:54:00,60.7,60.7,29.85,SW,214,0.0,0.0,100,0.00,,---,0.01,VWS V14.01,2013-08-01 11:54:00,
2013-08-01 07:00:00,61.0,61.0,29.85,SW,214,0.0,0.0,100,0.00,,---,0.01,VWS V14.01,2013-08-01 12:00:00,
2013-08-01 07:01:00,61.2,61.2,29.85,SW,214,0.0,0.0,100,0.00,,---,0.01,VWS V14.01,2013-08-01 12:01:00,
2013-08-01 07:05:00,61.3,61.3,29.85,SW,214,0.0,0.0,100,0.00,,---,0.01,VWS V14.01,2013-08-01 12:05:00,
2013-08-01 07:09:00,61.6,61.6,29.85,SW,214,0.0,0.0,100,0.00,,---,0.01,VWS V14.01,2013-08-01 12:09:00,
2013-08-01 07:10:00,61.8,61.8,29.85,SW,214,0.0,0.0,100,0.00,,---,0.01,VWS V14.01,2013-08-01 12:10:00,
2013-08-01 07:14:00,62.0,62.0,29.85,SW,214,0.0,0.0,100,0.00,,---,0.01,VWS V14.01,2013-08-01 12:14:00,
2013-08-01 07:16:00,62.0,62.0,29.85,SW,214,0.0,0.0,100,0.00,,---,0.01,VWS V14.01,2013-08-01 12:16:00,
2013-08-01 07:20:00,62.3,62.3,29.85,SW,214,0.0,0.0,100,0.00,,---,0.01,VWS V14.01,2013-08-01 12:20:00,
2013-08-01 07:21:00,62.4,62.4,29.85,SW,214,0.0,0.0,100,0.00,,---,0.01,VWS V14.01,2013-08-01 12:21:00,
2013-08-01 07:27:00,62.7,62.7,29.85,SW,214,0.0,1.0,100,0.00,,---,0.01,VWS V14.01,2013-08-01 12:27:00,
2013-08-01 07:31:00,62.7,62.7,29.85,SW,214,0.0,0.0,100,0.00,,---,0.01,VWS V14.01,2013-08-01 12:31:00,
2013-08-01 07:32:00,62.7,62.7,29.85,SW,214,0.0,0.0,100,0.00,,---,0.01,VWS V14.01,2013-08-01 12:32:00,
2013-08-01 07:37:00,62.7,62.7,29.85,SW,214,0.0,0.0,100,0.00,,---,0.01,VWS V14.01,2013-08-01 12:37:00,
2013-08-01 07:38:00,62.7,62.7,29.85,SW,214,0.0,0.0,100,0.00,,---,0.01,VWS V14.01,2013-08-01 12:38:00,
2013-08-01 07:42:00,63.1,63.1,29.85,West,268,0.0,0.0,100,0.00,,---,0.01,VWS V14.01,2013-08-01 12:42:00,
2013-08-01 07:43:00,63.1,62.8,29.85,West,268,0.0,0.0,99,0.00,,---,0.01,VWS V14.01,2013-08-01 12:43:00,
2013-08-01 07:47:00,63.4,63.4,29.85,West,268,0.0,0.0,100,0.00,,---,0.01,VWS V14.01,2013-08-01 12:47:00,
2013-08-01 07:49:00,63.5,63.2,29.85,West,268,0.0,0.0,99,0.00,,---,0.01,VWS V14.01,2013-08-01 12:49:00,
2013-08-01 07:54:00,63.9,63.6,29.85,West,268,0.0,0.0,99,0.00,,---,0.01,VWS V14.01,2013-08-01 12:54:00,
2013-08-01 07:55:00,63.9,63.6,29.85,West,268,0.0,0.0,99,0.00,,---,0.01,VWS V14.01,2013-08-01 12:55:00,
2013-08-01 07:56:00,63.9,63.6,29.85,SSE,168,1.0,1.0,99,0.00,,---,0.01,VWS V14.01,2013-08-01 12:56:00,
2013-08-01 08:01:00,64.3,64.0,29.85,South,169,0.0,0.0,99,0.00,,---,0.01,VWS V14.01,2013-08-01 13:01:00,
2013-08-01 08:03:00,64.5,64.2,29.85,South,169,0.0,0.0,99,0.00,,---,0.01,VWS V14.01,2013-08-01 13:03:00,
2013-08-01 08:08:00,65.0,64.7,29.85,NW,321,0.0,0.0,99,0.00,,---,0.01,VWS V14.01,2013-08-01 13:08:00,
2013-08-01 08:10:00,65.2,64.9,29.85,NW,321,0.0,0.0,99,0.00,,---,0.01,VWS V14.01,2013-08-01 13:10:00,
2013-08-01 08:13:00,65.2,64.6,29.85,NW,321,0.0,0.0,98,0.00,,---,0.01,VWS V14.01,2013-08-01 13:13:00,
2013-08-01 08:15:00,65.5,64.9,29.84,NNW,327,0.0,0.0,98,0.00,,---,0.01,VWS V14.01,2013-08-01 13:15:00,
2013-08-01 08:19:00,66.0,65.4,29.84,SW,236,0.0,1.0,98,0.00,,---,0.01,VWS V14.01,2013-08-01 13:19:00,
2013-08-01 08:20:00,66.1,65.2,29.84,SW,236,0.0,1.0,97,0.00,,---,0.01,VWS V14.01,2013-08-01 13:20:00,
2013-08-01 08:22:00,66.3,65.4,29.84,SW,236,0.0,0.0,97,0.00,,---,0.01,VWS V14.01,2013-08-01 13:22:00,
2013-08-01 08:25:00,66.6,65.4,29.84,West,259,1.0,1.0,96,0.00,,---,0.01,VWS V14.01,2013-08-01 13:25:00,
2013-08-01 08:26:00,66.6,65.4,29.84,NW,309,0.0,3.0,96,0.00,,---,0.01,VWS V14.01,2013-08-01 13:26:00,
2013-08-01 08:28:00,66.6,65.1,29.84,NW,309,0.0,1.0,95,0.00,,---,0.01,VWS V14.01,2013-08-01 13:28:00,
2013-08-01 08:30:00,66.8,65.3,29.84,NW,310,0.0,1.0,95,0.00,,---,0.01,VWS V14.01,2013-08-01 13:30:00,
2013-08-01 08:31:00,66.8,65.3,29.84,NW,310,0.0,1.0,95,0.00,,---,0.01,VWS V14.01,2013-08-01 13:31:00,
2013-08-01 08:33:00,66.9,65.1,29.84,NW,310,0.0,1.0,94,0.00,,---,0.01,VWS V14.01,2013-08-01 13:33:00,
2013-08-01 08:38:00,67.3,64.9,29.84,NW,310,0.0,1.0,92,0.00,,---,0.01,VWS V14.01,2013-08-01 13:38:00,
2013-08-01 08:39:00,67.4,65.0,29.84,NW,310,0.0,0.0,92,0.00,,---,0.01,VWS V14.01,2013-08-01 13:39:00,
2013-08-01 08:41:00,67.6,65.2,29.84,NW,310,0.0,1.0,92,0.00,,---,0.01,VWS V14.01,2013-08-01 13:41:00,
2013-08-01 08:45:00,67.8,64.8,29.84,NNW,347,4.0,4.0,90,0.00,,---,0.01,VWS V14.01,2013-08-01 13:45:00,
2013-08-01 08:47:00,67.9,64.5,29.84,West,278,0.0,1.0,89,0.00,,---,0.01,VWS V14.01,2013-08-01 13:47:00,
2013-08-01 08:51:00,68.4,65.0,29.84,West,278,0.0,1.0,89,0.00,,---,0.01,VWS V14.01,2013-08-01 13:51:00,
2013-08-01 08:52:00,68.6,65.2,29.84,West,278,0.0,0.0,89,0.00,,---,0.01,VWS V14.01,2013-08-01 13:52:00,
2013-08-01 08:55:00,68.9,65.2,29.84,West,278,0.0,1.0,88,0.00,,---,0.01,VWS V14.01,2013-08-01 13:55:00,
2013-08-01 08:57:00,69.1,65.1,29.84,NW,307,2.0,2.0,87,0.00,,---,0.01,VWS V14.01,2013-08-01 13:57:00,
2013-08-01 09:01:00,69.4,65.0,29.84,NNW,344,0.0,0.0,86,0.00,,---,0.01,VWS V14.01,2013-08-01 14:01:00,
2013-08-01 09:02:00,69.8,65.8,29.84,NE,49,0.0,1.0,87,0.00,,---,0.01,VWS V14.01,2013-08-01 14:02:00,
2013-08-01 09:04:00,69.9,65.5,29.84,WNW,300,1.0,2.0,86,0.00,,---,0.01,VWS V14.01,2013-08-01 14:04:00,
2013-08-01 09:06:00,70.1,65.4,29.84,WSW,258,0.0,2.0,85,0.00,,---,0.01,VWS V14.01,2013-08-01 14:06:00,
2013-08-01 09:07:00,70.1,65.1,29.84,North,352,0.0,2.0,84,0.00,,---,0.01,VWS V14.01,2013-08-01 14:07:00,
2013-08-01 09:12:00,70.4,65.3,29.84,WNW,297,0.0,1.0,84,0.00,,---,0.01,VWS V14.01,2013-08-01 14:12:00,
2013-08-01 09:14:00,70.6,65.5,29.84,NW,321,1.0,4.0,84,0.00,,---,0.01,VWS V14.01,2013-08-01 14:14:00,
2013-08-01 09:16:00,70.8,65.0,29.84,NW,321,0.0,1.0,82,0.00,,---,0.01,VWS V14.01,2013-08-01 14:16:00,
2013-08-01 09:19:00,70.9,65.1,29.84,NW,321,0.0,1.0,82,0.00,,---,0.01,VWS V14.01,2013-08-01 14:19:00,
2013-08-01 09:22:00,71.1,65.0,29.84,NW,310,0.0,1.0,81,0.00,,---,0.01,VWS V14.01,2013-08-01 14:22:00,
2013-08-01 09:23:00,71.1,65.0,29.84,WSW,241,1.0,2.0,81,0.00,,---,0.01,VWS V14.01,2013-08-01 14:23:00,
2013-08-01 09:24:00,71.3,65.2,29.84,WSW,241,0.0,1.0,81,0.00,,---,0.01,VWS V14.01,2013-08-01 14:24:00,
2013-08-01 09:27:00,71.5,65.4,29.84,NNW,335,3.0,3.0,81,0.00,,---,0.01,VWS V14.01,2013-08-01 14:27:00,
2013-08-01 09:29:00,71.5,65.0,29.84,NNW,335,0.0,1.0,80,0.00,,---,0.01,VWS V14.01,2013-08-01 14:29:00,
2013-08-01 09:30:00,71.6,65.1,29.84,North,356,1.0,3.0,80,0.00,,---,0.01,VWS V14.01,2013-08-01 14:30:00,
2013-08-01 09:34:00,71.8,65.3,29.84,North,358,0.0,1.0,80,0.00,,---,0.01,VWS V14.01,2013-08-01 14:34:00,
2013-08-01 09:35:00,71.8,65.3,29.84,North,358,0.0,1.0,80,0.00,,---,0.01,VWS V14.01,2013-08-01 14:35:00,
2013-08-01 09:39:00,72.5,66.3,29.84,North,358,0.0,1.0,81,0.00,,---,0.01,VWS V14.01,2013-08-01 14:39:00,
2013-08-01 09:40:00,72.5,66.0,29.84,North,358,0.0,2.0,80,0.00,,---,0.01,VWS V14.01,2013-08-01 14:40:00,
2013-08-01 09:44:00,72.7,65.4,29.84,North,356,2.0,3.0,78,0.00,,---,0.01,VWS V14.01,2013-08-01 14:44:00,
2013-08-01 09:46:00,72.8,65.6,29.84,North,356,0.0,1.0,78,0.00,,---,0.01,VWS V14.01,2013-08-01 14:46:00,
2013-08-01 09:49:00,73.0,65.4,29.84,North,0,1.0,1.0,77,0.00,,---,0.01,VWS V14.01,2013-08-01 14:49:00,
2013-08-01 09:50:00,73.0,65.7,29.84,North,0,0.0,2.0,78,0.00,,---,0.01,VWS V14.01,2013-08-01 14:50:00,
2013-08-01 09:51:00,73.0,65.7,29.84,North,358,2.0,2.0,78,0.00,,---,0.01,VWS V14.01,2013-08-01 14:51:00,
2013-08-01 09:57:00,73.2,65.6,29.84,North,354,0.0,1.0,77,0.00,,---,0.01,VWS V14.01,2013-08-01 14:57:00,
2013-08-01 09:59:00,73.3,65.7,29.84,North,358,1.0,1.0,77,0.00,,---,0.01,VWS V14.01,2013-08-01 14:59:00,
2013-08-01 10:04:00,73.3,65.3,29.84,North,358,0.0,1.0,76,0.00,,---,0.01,VWS V14.01,2013-08-01 15:04:00,
2013-08-01 10:05:00,73.3,65.3,29.84,North,358,2.0,3.0,76,0.00,,---,0.01,VWS V14.01,2013-08-01 15:05:00,
2013-08-01 10:09:00,73.3,63.7,29.84,NNW,342,1.0,1.0,72,0.00,,---,0.01,VWS V14.01,2013-08-01 15:09:00,
2013-08-01 10:10:00,73.3,63.7,29.84,NNW,342,1.0,3.0,72,0.00,,---,0.01,VWS V14.01,2013-08-01 15:10:00,
2013-08-01 10:13:00,73.7,64.5,29.84,NNW,342,0.0,2.0,73,0.00,,---,0.01,VWS V14.01,2013-08-01 15:13:00,
2013-08-01 10:15:00,73.9,65.1,29.84,NNW,342,0.0,1.0,74,0.00,,---,0.01,VWS V14.01,2013-08-01 15:15:00,
2013-08-01 10:19:00,74.2,64.6,29.84,NNW,342,0.0,1.0,72,0.00,,---,0.01,VWS V14.01,2013-08-01 15:19:00,
2013-08-01 10:23:00,74.0,63.6,29.84,NNW,342,0.0,2.0,70,0.00,,---,0.01,VWS V14.01,2013-08-01 15:23:00,
2013-08-01 10:25:00,73.9,63.9,29.84,NNW,345,1.0,1.0,71,0.00,,---,0.01,VWS V14.01,2013-08-01 15:25:00,
2013-08-01 10:27:00,73.9,63.9,29.84,NNW,344,0.0,0.0,71,0.00,,---,0.01,VWS V14.01,2013-08-01 15:27:00,
2013-08-01 10:28:00,74.0,64.0,29.84,NNW,344,0.0,0.0,71,0.00,,---,0.01,VWS V14.01,2013-08-01 15:28:00,
2013-08-01 10:30:00,74.2,64.6,29.84,NNW,344,0.0,0.0,72,0.00,,---,0.01,VWS V14.01,2013-08-01 15:30:00,
2013-08-01 10:34:00,74.6,63.8,29.84,WNW,288,0.0,0.0,69,0.00,,---,0.01,VWS V14.01,2013-08-01 15:34:00,
2013-08-01 10:35:00,74.7,64.3,29.84,WNW,288,0.0,0.0,70,0.00,,---,0.01,VWS V14.01,2013-08-01 15:35:00,
2013-08-01 10:39:00,74.9,63.2,29.84,North,353,0.0,2.0,67,0.00,,---,0.01,VWS V14.01,2013-08-01 15:39:00,
2013-08-01 10:40:00,74.9,63.6,29.84,North,353,0.0,0.0,68,0.00,,---,0.01,VWS V14.01,2013-08-01 15:40:00,
2013-08-01 10:41:00,74.9,64.1,29.84,North,353,1.0,2.0,69,0.00,,---,0.01,VWS V14.01,2013-08-01 15:41:00,
2013-08-01 10:46:00,75.3,64.4,29.85,NNE,27,0.0,3.0,69,0.00,,---,0.01,VWS V14.01,2013-08-01 15:46:00,
2013-08-01 10:47:00,75.3,64.0,29.85,NNE,27,0.0,1.0,68,0.00,,---,0.01,VWS V14.01,2013-08-01 15:47:00,
2013-08-01 10:48:00,75.4,64.1,29.85,NNE,25,0.0,2.0,68,0.00,,---,0.01,VWS V14.01,2013-08-01 15:48:00,
2013-08-01 10:53:00,75.8,63.6,29.85,NNE,27,0.0,0.0,66,0.00,,---,0.01,VWS V14.01,2013-08-01 15:53:00,
2013-08-01 10:59:00,76.7,64.5,29.85,NNE,27,0.0,1.0,66,0.00,,---,0.01,VWS V14.01,2013-08-01 15:59:00,
2013-08-01 11:00:00,76.7,63.6,29.85,SW,221,0.0,2.0,64,0.00,,---,0.01,VWS V14.01,2013-08-01 16:00:00,
2013-08-01 11:01:00,76.8,62.3,29.85,SW,221,0.0,1.0,61,0.00,,---,0.01,VWS V14.01,2013-08-01 16:01:00,
2013-08-01 11:07:00,76.7,61.3,29.85,SSW,195,0.0,2.0,59,0.00,,---,0.01,VWS V14.01,2013-08-01 16:07:00,
2013-08-01 11:09:00,76.5,61.6,29.85,NW,321,0.0,1.0,60,0.00,,---,0.01,VWS V14.01,2013-08-01 16:09:00,
2013-08-01 11:12:00,76.5,62.1,29.85,SSW,210,2.0,3.0,61,0.00,,---,0.01,VWS V14.01,2013-08-01 16:12:00,
2013-08-01 11:13:00,76.5,62.5,29.85,SSW,210,0.0,1.0,62,0.00,,---,0.01,VWS V14.01,2013-08-01 16:13:00,
2013-08-01 11:14:00,76.5,63.0,29.85,SSW,210,0.0,0.0,63,0.00,,---,0.01,VWS V14.01,2013-08-01 16:14:00,
2013-08-01 11:19:00,76.5,62.5,29.85,West,272,0.0,2.0,62,0.00,,---,0.01,VWS V14.01,2013-08-01 16:19:00,
2013-08-01 11:20:00,76.5,63.0,29.85,South,186,0.0,0.0,63,0.00,,---,0.01,VWS V14.01,2013-08-01 16:20:00,
2013-08-01 11:25:00,76.7,61.3,29.85,WNW,293,2.0,2.0,59,0.00,,---,0.01,VWS V14.01,2013-08-01 16:25:00,
2013-08-01 11:26:00,76.8,60.9,29.85,NNW,328,4.0,4.0,58,0.00,,---,0.01,VWS V14.01,2013-08-01 16:26:00,
2013-08-01 11:31:00,77.0,61.1,29.85,NNW,339,2.0,3.0,58,0.00,,---,0.01,VWS V14.01,2013-08-01 16:31:00,
2013-08-01 11:32:00,77.0,61.1,29.85,North,358,0.0,0.0,58,0.00,,---,0.01,VWS V14.01,2013-08-01 16:32:00,
2013-08-01 11:37:00,77.2,61.3,29.85,NNW,335,1.0,1.0,58,0.00,,---,0.01,VWS V14.01,2013-08-01 16:37:00,
2013-08-01 11:38:00,77.2,60.8,29.85,NW,323,2.0,2.0,57,0.00,,---,0.01,VWS V14.01,2013-08-01 16:38:00,
2013-08-01 11:41:00,77.0,61.1,29.85,NW,323,1.0,2.0,58,0.00,,---,0.01,VWS V14.01,2013-08-01 16:41:00,
2013-08-01 11:44:00,76.8,59.4,29.85,NW,320,4.0,4.0,55,0.00,,---,0.01,VWS V14.01,2013-08-01 16:44:00,
2013-08-01 11:46:00,76.7,59.3,29.85,NNW,330,0.0,4.0,55,0.00,,---,0.01,VWS V14.01,2013-08-01 16:46:00,
2013-08-01 11:49:00,76.5,60.6,29.85,North,0,3.0,6.0,58,0.00,,---,0.01,VWS V14.01,2013-08-01 16:49:00,
2013-08-01 11:50:00,76.7,59.8,29.85,North,3,2.0,4.0,56,0.00,,---,0.01,VWS V14.01,2013-08-01 16:50:00,
2013-08-01 11:51:00,76.7,59.8,29.85,North,3,1.0,4.0,56,0.00,,---,0.01,VWS V14.01,2013-08-01 16:51:00,
2013-08-01 11:55:00,77.0,60.1,29.85,North,358,0.0,2.0,56,0.00,,---,0.01,VWS V14.01,2013-08-01 16:55:00,
2013-08-01 11:56:00,77.2,60.8,29.85,WSW,252,1.0,2.0,57,0.00,,---,0.01,VWS V14.01,2013-08-01 16:56:00,
2013-08-01 11:58:00,77.4,60.5,29.85,NW,323,1.0,3.0,56,0.00,,---,0.01,VWS V14.01,2013-08-01 16:58:00,
2013-08-01 12:00:00,77.4,60.0,29.85,North,351,1.0,4.0,55,0.00,,---,0.01,VWS V14.01,2013-08-01 17:00:00,
2013-08-01 12:01:00,77.4,59.0,29.85,SSW,192,0.0,1.0,53,0.00,,---,0.01,VWS V14.01,2013-08-01 17:01:00,
2013-08-01 12:05:00,77.4,55.6,29.85,South,189,1.0,2.0,47,0.00,,---,0.01,VWS V14.01,2013-08-01 17:05:00,
2013-08-01 12:06:00,77.6,55.2,29.85,North,4,1.0,2.0,46,0.00,,---,0.01,VWS V14.01,2013-08-01 17:06:00,
2013-08-01 12:08:00,77.9,57.8,29.85,NNW,338,2.0,3.0,50,0.00,,---,0.01,VWS V14.01,2013-08-01 17:08:00,
2013-08-01 12:10:00,77.9,57.8,29.85,NW,311,2.0,2.0,50,0.00,,---,0.01,VWS V14.01,2013-08-01 17:10:00,
2013-08-01 12:14:00,77.7,57.6,29.85,NNW,331,1.0,1.0,50,0.00,,---,0.01,VWS V14.01,2013-08-01 17:14:00,
2013-08-01 12:20:00,77.7,55.3,29.85,NNW,338,3.0,3.0,46,0.00,,---,0.01,VWS V14.01,2013-08-01 17:20:00,
2013-08-01 12:21:00,77.7,55.3,29.85,NNW,338,0.0,3.0,46,0.00,,---,0.01,VWS V14.01,2013-08-01 17:21:00,
2013-08-01 12:22:00,77.7,55.3,29.85,NNW,337,0.0,1.0,46,0.00,,---,0.01,VWS V14.01,2013-08-01 17:22:00,
2013-08-01 12:27:00,77.6,54.0,29.85,NNW,345,4.0,6.0,44,0.00,,---,0.01,VWS V14.01,2013-08-01 17:27:00,
2013-08-01 12:29:00,77.7,54.1,29.85,North,0,2.0,4.0,44,0.00,,---,0.01,VWS V14.01,2013-08-01 17:29:00,
2013-08-01 12:32:00,77.7,55.3,29.84,NNW,330,2.0,6.0,46,0.00,,---,0.01,VWS V14.01,2013-08-01 17:32:00,
2013-08-01 12:33:00,77.7,55.3,29.84,NW,326,0.0,1.0,46,0.00,,---,0.01,VWS V14.01,2013-08-01 17:33:00,
2013-08-01 12:38:00,77.7,56.5,29.84,North,0,4.0,5.0,48,0.00,,---,0.01,VWS V14.01,2013-08-01 17:38:00,
2013-08-01 12:39:00,77.6,54.0,29.84,North,0,0.0,3.0,44,0.00,,---,0.01,VWS V14.01,2013-08-01 17:39:00,
2013-08-01 12:43:00,77.6,54.0,29.84,North,0,2.0,5.0,44,0.00,,---,0.01,VWS V14.01,2013-08-01 17:43:00,
2013-08-01 12:44:00,77.6,54.0,29.84,North,352,0.0,2.0,44,0.00,,---,0.01,VWS V14.01,2013-08-01 17:44:00,
2013-08-01 12:49:00,77.4,54.4,29.84,North,357,3.0,3.0,45,0.00,,---,0.01,VWS V14.01,2013-08-01 17:49:00,
2013-08-01 12:50:00,77.2,53.6,29.84,North,356,0.0,3.0,44,0.00,,---,0.01,VWS V14.01,2013-08-01 17:50:00,
2013-08-01 12:51:00,77.0,53.4,29.84,North,350,2.0,3.0,44,0.00,,---,0.01,VWS V14.01,2013-08-01 17:51:00,
2013-08-01 12:56:00,76.5,53.6,29.84,North,355,2.0,5.0,45,0.00,,---,0.01,VWS V14.01,2013-08-01 17:56:00,
2013-08-01 12:58:00,76.3,53.4,29.84,North,354,0.0,2.0,45,0.00,,---,0.01,VWS V14.01,2013-08-01 17:58:00,
2013-08-01 12:59:00,76.3,54.0,29.85,North,353,0.0,2.0,46,0.00,,---,0.01,VWS V14.01,2013-08-01 17:59:00,
2013-08-01 13:03:00,76.3,52.8,29.85,NNW,333,0.0,3.0,44,0.00,,---,0.01,VWS V14.01,2013-08-01 18:03:00,
2013-08-01 13:04:00,76.1,53.8,29.85,North,351,3.0,4.0,46,0.00,,---,0.01,VWS V14.01,2013-08-01 18:04:00,
2013-08-01 13:09:00,76.1,53.8,29.85,North,349,2.0,3.0,46,0.00,,---,0.01,VWS V14.01,2013-08-01 18:09:00,
2013-08-01 13:12:00,76.1,53.8,29.85,NNW,340,1.0,3.0,46,0.00,,---,0.01,VWS V14.01,2013-08-01 18:12:00,
2013-08-01 13:15:00,76.1,52.0,29.84,North,0,2.0,3.0,43,0.00,,---,0.01,VWS V14.01,2013-08-01 18:15:00,
2013-08-01 13:19:00,76.5,52.4,29.84,North,350,2.0,3.0,43,0.00,,---,0.01,VWS V14.01,2013-08-01 18:19:00,
2013-08-01 13:20:00,76.7,53.2,29.84,North,1,0.0,3.0,44,0.00,,---,0.01,VWS V14.01,2013-08-01 18:20:00,
2013-08-01 13:21:00,76.8,53.3,29.84,North,0,0.0,1.0,44,0.00,,---,0.01,VWS V14.01,2013-08-01 18:21:00,
2013-08-01 13:24:00,77.2,53.6,29.84,North,1,0.0,2.0,44,0.00,,---,0.01,VWS V14.01,2013-08-01 18:24:00,
2013-08-01 13:29:00,77.7,51.5,29.84,North,0,2.0,4.0,40,0.00,,---,0.01,VWS V14.01,2013-08-01 18:29:00,
2013-08-01 13:35:00,78.1,52.5,29.84,North,4,1.0,2.0,41,0.00,,---,0.01,VWS V14.01,2013-08-01 18:35:00,
2013-08-01 13:36:00,78.1,53.2,29.84,North,356,3.0,3.0,42,0.00,,---,0.01,VWS V14.01,2013-08-01 18:36:00,
2013-08-01 13:40:00,78.3,52.7,29.84,North,353,1.0,3.0,41,0.00,,---,0.01,VWS V14.01,2013-08-01 18:40:00,
2013-08-01 13:42:00,78.3,52.7,29.84,North,354,1.0,2.0,41,0.00,,---,0.01,VWS V14.01,2013-08-01 18:42:00,
2013-08-01 13:47:00,78.6,51.6,29.83,North,6,0.0,2.0,39,0.00,,---,0.01,VWS V14.01,2013-08-01 18:47:00,
2013-08-01 13:48:00,78.8,51.8,29.83,SSE,148,1.0,1.0,39,0.00,,---,0.01,VWS V14.01,2013-08-01 18:48:00,
2013-08-01 13:49:00,78.8,51.8,29.83,SSE,150,0.0,2.0,39,0.00,,---,0.01,VWS V14.01,2013-08-01 18:49:00,
2013-08-01 13:53:00,78.8,52.5,29.83,North,0,1.0,2.0,40,0.00,,---,0.01,VWS V14.01,2013-08-01 18:53:00,
2013-08-01 13:55:00,78.8,52.5,29.83,North,349,0.0,1.0,40,0.00,,---,0.01,VWS V14.01,2013-08-01 18:55:00,
2013-08-01 13:57:00,79.0,54.6,29.83,North,7,2.0,2.0,43,0.00,,---,0.01,VWS V14.01,2013-08-01 18:57:00,
2013-08-01 14:00:00,79.2,52.8,29.83,North,357,0.0,4.0,40,0.00,,---,0.01,VWS V14.01,2013-08-01 19:00:00,
2013-08-01 14:01:00,79.2,52.8,29.83,North,357,0.0,4.0,40,0.00,,---,0.01,VWS V14.01,2013-08-01 19:01:00,
2013-08-01 14:03:00,79.4,52.3,29.83,North,0,0.0,3.0,39,0.00,,---,0.01,VWS V14.01,2013-08-01 19:03:00,
2013-08-01 14:06:00,79.2,51.4,29.83,North,355,0.0,2.0,38,0.00,,---,0.01,VWS V14.01,2013-08-01 19:06:00,
2013-08-01 14:09:00,79.2,51.4,29.83,North,356,2.0,5.0,38,0.00,,---,0.01,VWS V14.01,2013-08-01 19:09:00,
2013-08-01 14:11:00,79.0,52.6,29.83,NNW,342,0.0,0.0,40,0.00,,---,0.01,VWS V14.01,2013-08-01 19:11:00,
2013-08-01 14:13:00,79.2,54.2,29.83,NNE,20,1.0,2.0,42,0.00,,---,0.01,VWS V14.01,2013-08-01 19:13:00,
2013-08-01 14:14:00,79.2,53.5,29.83,North,1,3.0,3.0,41,0.00,,---,0.01,VWS V14.01,2013-08-01 19:14:00,
2013-08-01 14:17:00,79.4,53.0,29.84,NNE,32,0.0,0.0,40,0.00,,---,0.01,VWS V14.01,2013-08-01 19:17:00,
2013-08-01 14:18:00,79.4,53.7,29.84,North,349,1.0,4.0,41,0.00,,---,0.01,VWS V14.01,2013-08-01 19:18:00,
2013-08-01 14:20:00,79.4,54.3,29.84,ESE,108,1.0,2.0,42,0.00,,---,0.01,VWS V14.01,2013-08-01 19:20:00,
2013-08-01 14:24:00,79.2,52.1,29.84,NNW,330,4.0,5.0,39,0.00,,---,0.01,VWS V14.01,2013-08-01 19:24:00,
2013-08-01 14:26:00,79.0,52.6,29.84,North,358,1.0,2.0,40,0.00,,---,0.01,VWS V14.01,2013-08-01 19:26:00,
2013-08-01 14:27:00,78.8,51.1,29.84,North,0,0.0,1.0,38,0.00,,---,0.01,VWS V14.01,2013-08-01 19:27:00,
2013-08-01 14:29:00,78.6,51.6,29.84,North,4,3.0,5.0,39,0.00,,---,0.01,VWS V14.01,2013-08-01 19:29:00,
2013-08-01 14:31:00,78.6,53.0,29.84,North,2,0.0,1.0,41,0.00,,---,0.01,VWS V14.01,2013-08-01 19:31:00,
2013-08-01 14:33:00,78.5,51.5,29.84,North,2,0.0,1.0,39,0.00,,---,0.01,VWS V14.01,2013-08-01 19:33:00,
2013-08-01 14:38:00,78.5,53.5,29.84,SSW,198,0.0,1.0,42,0.00,,---,0.01,VWS V14.01,2013-08-01 19:38:00,
2013-08-01 14:42:00,78.6,54.9,29.84,East,96,0.0,0.0,44,0.00,,---,0.01,VWS V14.01,2013-08-01 19:42:00,
2013-08-01 14:44:00,78.6,54.9,29.84,NNW,343,1.0,4.0,44,0.00,,---,0.01,VWS V14.01,2013-08-01 19:44:00,
2013-08-01 14:47:00,78.8,52.5,29.83,North,0,0.0,4.0,40,0.00,,---,0.01,VWS V14.01,2013-08-01 19:47:00,
2013-08-01 14:53:00,78.8,51.8,29.83,North,358,0.0,2.0,39,0.00,,---,0.01,VWS V14.01,2013-08-01 19:53:00,
2013-08-01 14:54:00,78.8,53.1,29.83,North,349,2.0,3.0,41,0.00,,---,0.01,VWS V14.01,2013-08-01 19:54:00,
2013-08-01 15:00:00,78.6,51.6,29.83,North,357,1.0,3.0,39,0.00,,---,0.01,VWS V14.01,2013-08-01 20:00:00,
2013-08-01 15:03:00,78.5,51.5,29.83,North,6,3.0,3.0,39,0.00,,---,0.01,VWS V14.01,2013-08-01 20:03:00,
2013-08-01 15:05:00,78.5,52.2,29.83,North,0,1.0,2.0,40,0.00,,---,0.01,VWS V14.01,2013-08-01 20:05:00,
2013-08-01 15:09:00,78.1,52.5,29.83,WNW,288,1.0,1.0,41,0.00,,---,0.01,VWS V14.01,2013-08-01 20:09:00,
2013-08-01 15:12:00,78.3,53.3,29.83,NNE,14,1.0,3.0,42,0.00,,---,0.01,VWS V14.01,2013-08-01 20:12:00,
2013-08-01 15:15:00,78.5,52.9,29.83,East,82,0.0,2.0,41,0.00,,---,0.01,VWS V14.01,2013-08-01 20:15:00,
2013-08-01 15:17:00,78.5,52.9,29.83,NW,322,0.0,3.0,41,0.00,,---,0.01,VWS V14.01,2013-08-01 20:17:00,
2013-08-01 15:18:00,78.5,52.2,29.83,NW,322,0.0,1.0,40,0.00,,---,0.01,VWS V14.01,2013-08-01 20:18:00,
2013-08-01 15:21:00,78.6,52.3,29.83,NW,322,3.0,3.0,40,0.00,,---,0.01,VWS V14.01,2013-08-01 20:21:00,
2013-08-01 15:23:00,78.5,52.2,29.83,NW,322,1.0,1.0,40,0.00,,---,0.01,VWS V14.01,2013-08-01 20:23:00,
2013-08-01 15:27:00,78.5,52.9,29.83,NNW,345,1.0,3.0,41,0.00,,---,0.01,VWS V14.01,2013-08-01 20:27:00,
2013-08-01 15:28:00,78.3,52.0,29.83,NNW,345,0.0,1.0,40,0.00,,---,0.01,VWS V14.01,2013-08-01 20:28:00,
2013-08-01 15:29:00,78.3,52.7,29.84,NNW,345,0.0,1.0,41,0.00,,---,0.01,VWS V14.01,2013-08-01 20:29:00,
2013-08-01 15:33:00,78.3,52.7,29.84,NNW,344,0.0,2.0,41,0.00,,---,0.01,VWS V14.01,2013-08-01 20:33:00,
2013-08-01 15:37:00,78.5,52.9,29.84,North,358,0.0,3.0,41,0.00,,---,0.01,VWS V14.01,2013-08-01 20:37:00,
2013-08-01 15:41:00,78.3,53.3,29.84,North,1,1.0,1.0,42,0.00,,---,0.01,VWS V14.01,2013-08-01 20:41:00,
2013-08-01 15:42:00,78.3,53.3,29.84,North,1,2.0,3.0,42,0.00,,---,0.01,VWS V14.01,2013-08-01 20:42:00,
2013-08-01 15:43:00,78.3,52.0,29.84,North,1,0.0,2.0,40,0.00,,---,0.01,VWS V14.01,2013-08-01 20:43:00,
2013-08-01 15:44:00,78.3,52.0,29.84,North,1,0.0,1.0,40,0.00,,---,0.01,VWS V14.01,2013-08-01 20:44:00,
2013-08-01 15:47:00,78.1,52.5,29.84,North,0,2.0,2.0,41,0.00,,---,0.01,VWS V14.01,2013-08-01 20:47:00,
2013-08-01 15:49:00,78.1,53.8,29.84,North,358,2.0,5.0,43,0.00,,---,0.01,VWS V14.01,2013-08-01 20:49:00,
2013-08-01 15:52:00,77.9,51.7,29.84,NNW,335,1.0,4.0,40,0.00,,---,0.01,VWS V14.01,2013-08-01 20:52:00,
2013-08-01 15:54:00,77.7,52.8,29.84,ENE,67,1.0,2.0,42,0.00,,---,0.01,VWS V14.01,2013-08-01 20:54:00,
2013-08-01 15:55:00,77.7,52.8,29.84,North,1,2.0,2.0,42,0.00,,---,0.01,VWS V14.01,2013-08-01 20:55:00,
2013-08-01 15:57:00,77.6,52.7,29.84,NW,326,0.0,1.0,42,0.00,,---,0.01,VWS V14.01,2013-08-01 20:57:00,
2013-08-01 15:58:00,77.6,52.7,29.84,NW,326,0.0,1.0,42,0.00,,---,0.01,VWS V14.01,2013-08-01 20:58:00,
2013-08-01 16:01:00,77.7,52.8,29.83,NNW,346,0.0,2.0,42,0.00,,---,0.01,VWS V14.01,2013-08-01 21:01:00,
2013-08-01 16:02:00,77.7,52.8,29.83,NNW,346,2.0,2.0,42,0.00,,---,0.01,VWS V14.01,2013-08-01 21:02:00,
2013-08-01 16:04:00,77.7,52.8,29.83,NNW,346,1.0,3.0,42,0.00,,---,0.01,VWS V14.01,2013-08-01 21:04:00,
2013-08-01 16:06:00,77.7,52.8,29.83,NNW,346,0.0,0.0,42,0.00,,---,0.01,VWS V14.01,2013-08-01 21:06:00,
2013-08-01 16:07:00,77.7,52.8,29.83,NNW,346,0.0,0.0,42,0.00,,---,0.01,VWS V14.01,2013-08-01 21:07:00,
2013-08-01 16:10:00,77.7,52.8,29.83,NNW,346,0.0,0.0,42,0.00,,---,0.01,VWS V14.01,2013-08-01 21:10:00,
2013-08-01 16:13:00,77.6,52.7,29.83,East,86,0.0,0.0,42,0.00,,---,0.01,VWS V14.01,2013-08-01 21:13:00,
2013-08-01 16:14:00,77.6,52.7,29.83,East,86,1.0,1.0,42,0.00,,---,0.01,VWS V14.01,2013-08-01 21:14:00,
2013-08-01 16:15:00,77.6,53.4,29.83,East,86,0.0,1.0,43,0.00,,---,0.01,VWS V14.01,2013-08-01 21:15:00,
2013-08-01 16:18:00,77.6,53.4,29.83,East,86,0.0,1.0,43,0.00,,---,0.01,VWS V14.01,2013-08-01 21:18:00,
2013-08-01 16:19:00,77.6,53.4,29.83,East,85,0.0,0.0,43,0.00,,---,0.01,VWS V14.01,2013-08-01 21:19:00,
2013-08-01 16:24:00,77.6,54.0,29.83,East,85,0.0,1.0,44,0.00,,---,0.01,VWS V14.01,2013-08-01 21:24:00,
2013-08-01 16:25:00,77.6,54.0,29.83,NNE,12,1.0,3.0,44,0.00,,---,0.01,VWS V14.01,2013-08-01 21:25:00,
2013-08-01 16:26:00,77.6,54.0,29.83,North,6,2.0,2.0,44,0.00,,---,0.01,VWS V14.01,2013-08-01 21:26:00,
2013-08-01 16:27:00,77.6,53.4,29.83,North,358,2.0,2.0,43,0.00,,---,0.01,VWS V14.01,2013-08-01 21:27:00,
2013-08-01 16:30:00,77.7,54.1,29.83,North,358,0.0,0.0,44,0.00,,---,0.01,VWS V14.01,2013-08-01 21:30:00,
2013-08-01 16:31:00,77.7,54.1,29.83,North,358,0.0,2.0,44,0.00,,---,0.01,VWS V14.01,2013-08-01 21:31:00,
2013-08-01 16:33:00,77.6,53.4,29.83,North,358,1.0,2.0,43,0.00,,---,0.01,VWS V14.01,2013-08-01 21:33:00,
2013-08-01 16:34:00,77.6,53.4,29.83,North,353,3.0,3.0,43,0.00,,---,0.01,VWS V14.01,2013-08-01 21:34:00,
2013-08-01 16:35:00,77.4,52.5,29.83,North,358,3.0,3.0,42,0.00,,---,0.01,VWS V14.01,2013-08-01 21:35:00,
2013-08-01 16:37:00,77.4,53.2,29.83,North,358,0.0,1.0,43,0.00,,---,0.01,VWS V14.01,2013-08-01 21:37:00,
2013-08-01 16:39:00,77.2,53.0,29.83,North,352,0.0,2.0,43,0.00,,---,0.01,VWS V14.01,2013-08-01 21:39:00,
2013-08-01 16:41:00,77.0,54.1,29.83,NNW,348,3.0,3.0,45,0.00,,---,0.01,VWS V14.01,2013-08-01 21:41:00,
2013-08-01 16:43:00,76.8,52.6,29.83,North,358,0.0,3.0,43,0.00,,---,0.01,VWS V14.01,2013-08-01 21:43:00,
2013-08-01 16:45:00,76.8,52.6,29.83,North,358,1.0,3.0,43,0.00,,---,0.01,VWS V14.01,2013-08-01 21:45:00,
2013-08-01 16:47:00,76.7,52.5,29.83,North,358,2.0,2.0,43,0.00,,---,0.01,VWS V14.01,2013-08-01 21:47:00,
2013-08-01 16:51:00,76.5,53.0,29.83,North,7,1.0,3.0,44,0.00,,---,0.01,VWS V14.01,2013-08-01 21:51:00,
2013-08-01 16:52:00,76.5,53.0,29.83,North,0,2.0,4.0,44,0.00,,---,0.01,VWS V14.01,2013-08-01 21:52:00,
2013-08-01 16:53:00,76.5,53.0,29.83,North,0,2.0,2.0,44,0.00,,---,0.01,VWS V14.01,2013-08-01 21:53:00,
2013-08-01 16:56:00,76.3,52.8,29.83,North,350,0.0,2.0,44,0.00,,---,0.01,VWS V14.01,2013-08-01 21:56:00,
2013-08-01 16:58:00,76.3,53.4,29.83,North,355,0.0,1.0,45,0.00,,---,0.01,VWS V14.01,2013-08-01 21:58:00,
2013-08-01 17:00:00,76.3,53.4,29.83,North,1,1.0,2.0,45,0.00,,---,0.01,VWS V14.01,2013-08-01 22:00:00,
2013-08-01 17:03:00,76.3,53.4,29.83,North,358,0.0,3.0,45,0.00,,---,0.01,VWS V14.01,2013-08-01 22:03:00,
2013-08-01 17:05:00,76.3,53.4,29.83,NNE,33,0.0,0.0,45,0.00,,---,0.01,VWS V14.01,2013-08-01 22:05:00,
2013-08-01 17:08:00,76.3,52.8,29.83,SE,128,1.0,2.0,44,0.00,,---,0.01,VWS V14.01,2013-08-01 22:08:00,
2013-08-01 17:09:00,76.3,53.4,29.83,SE,128,0.0,1.0,45,0.00,,---,0.01,VWS V14.01,2013-08-01 22:09:00,
2013-08-01 17:10:00,76.3,53.4,29.83,North,0,0.0,0.0,45,0.00,,---,0.01,VWS V14.01,2013-08-01 22:10:00,
2013-08-01 17:11:00,76.3,52.8,29.83,North,0,0.0,2.0,44,0.00,,---,0.01,VWS V14.01,2013-08-01 22:11:00,
2013-08-01 17:15:00,76.1,52.6,29.83,North,0,0.0,0.0,44,0.00,,---,0.01,VWS V14.01,2013-08-01 22:15:00,
2013-08-01 17:17:00,76.3,54.6,29.83,North,0,1.0,1.0,47,0.00,,---,0.01,VWS V14.01,2013-08-01 22:17:00,
2013-08-01 17:19:00,76.1,53.2,29.83,ENE,63,0.0,2.0,45,0.00,,---,0.01,VWS V14.01,2013-08-01 22:19:00,
2013-08-01 17:20:00,76.1,52.6,29.83,North,4,0.0,2.0,44,0.00,,---,0.01,VWS V14.01,2013-08-01 22:20:00,
2013-08-01 17:22:00,76.1,52.6,29.83,North,4,0.0,1.0,44,0.00,,---,0.01,VWS V14.01,2013-08-01 22:22:00,
2013-08-01 17:24:00,76.0,53.2,29.83,North,4,2.0,2.0,45,0.00,,---,0.01,VWS V14.01,2013-08-01 22:24:00,
2013-08-01 17:28:00,75.8,51.7,29.83,North,358,0.0,2.0,43,0.00,,---,0.01,VWS V14.01,2013-08-01 22:28:00,
2013-08-01 17:29:00,75.8,51.7,29.83,NNW,340,3.0,3.0,43,0.00,,---,0.01,VWS V14.01,2013-08-01 22:29:00,
2013-08-01 17:32:00,75.6,52.8,29.83,NNW,341,0.0,2.0,45,0.00,,---,0.01,VWS V14.01,2013-08-01 22:32:00,
2013-08-01 17:33:00,75.6,52.2,29.83,NNW,341,0.0,0.0,44,0.00,,---,0.01,VWS V14.01,2013-08-01 22:33:00,
2013-08-01 17:34:00,75.4,52.6,29.83,NNW,341,0.0,0.0,45,0.00,,---,0.01,VWS V14.01,2013-08-01 22:34:00,
2013-08-01 17:36:00,75.3,53.1,29.83,NNW,341,0.0,0.0,46,0.00,,---,0.01,VWS V14.01,2013-08-01 22:36:00,
2013-08-01 17:38:00,75.3,53.7,29.83,NNW,341,0.0,0.0,47,0.00,,---,0.01,VWS V14.01,2013-08-01 22:38:00,
2013-08-01 17:40:00,75.1,54.1,29.83,NNW,341,0.0,1.0,48,0.00,,---,0.01,VWS V14.01,2013-08-01 22:40:00,
2013-08-01 17:44:00,74.9,52.8,29.82,NNW,343,0.0,0.0,46,0.00,,---,0.01,VWS V14.01,2013-08-01 22:44:00,
2013-08-01 17:45:00,74.9,53.3,29.82,NNW,343,0.0,1.0,47,0.00,,---,0.01,VWS V14.01,2013-08-01 22:45:00,
2013-08-01 17:49:00,74.7,52.6,29.82,NNW,342,0.0,0.0,46,0.00,,---,0.01,VWS V14.01,2013-08-01 22:49:00,
2013-08-01 17:50:00,74.7,53.2,29.82,NNW,342,0.0,0.0,47,0.00,,---,0.01,VWS V14.01,2013-08-01 22:50:00,
2013-08-01 17:51:00,74.7,53.7,29.82,NNW,342,1.0,1.0,48,0.00,,---,0.01,VWS V14.01,2013-08-01 22:51:00,
2013-08-01 17:54:00,74.7,53.2,29.82,NNW,342,1.0,1.0,47,0.00,,---,0.01,VWS V14.01,2013-08-01 22:54:00,
2013-08-01 17:55:00,74.7,53.2,29.82,NNW,342,0.0,1.0,47,0.00,,---,0.01,VWS V14.01,2013-08-01 22:55:00,
2013-08-01 17:56:00,74.7,53.2,29.82,NNW,342,1.0,1.0,47,0.00,,---,0.01,VWS V14.01,2013-08-01 22:56:00,
2013-08-01 18:00:00,74.6,53.1,29.82,NNW,342,0.0,0.0,47,0.00,,---,0.01,VWS V14.01,2013-08-01 23:00:00,
2013-08-01 18:01:00,74.6,53.1,29.82,NNW,342,0.0,0.0,47,0.00,,---,0.01,VWS V14.01,2013-08-01 23:01:00,
2013-08-01 18:03:00,74.6,53.6,29.82,NNW,342,0.0,0.0,48,0.00,,---,0.01,VWS V14.01,2013-08-01 23:03:00,
2013-08-01 18:08:00,74.6,54.2,29.82,NNW,342,0.0,0.0,49,0.00,,---,0.01,VWS V14.01,2013-08-01 23:08:00,
2013-08-01 18:09:00,74.4,54.0,29.82,NNW,342,0.0,1.0,49,0.00,,---,0.01,VWS V14.01,2013-08-01 23:09:00,
2013-08-01 18:12:00,74.4,54.0,29.82,NNW,342,0.0,0.0,49,0.00,,---,0.01,VWS V14.01,2013-08-01 23:12:00,
2013-08-01 18:13:00,74.4,54.0,29.82,NNW,342,0.0,0.0,49,0.00,,---,0.01,VWS V14.01,2013-08-01 23:13:00,
2013-08-01 18:14:00,74.4,54.6,29.82,NNW,342,0.0,0.0,50,0.00,,---,0.01,VWS V14.01,2013-08-01 23:14:00,
2013-08-01 18:17:00,74.2,54.4,29.82,NNW,342,0.0,0.0,50,0.00,,---,0.01,VWS V14.01,2013-08-01 23:17:00,
2013-08-01 18:19:00,74.2,53.8,29.82,NNW,342,0.0,1.0,49,0.00,,---,0.01,VWS V14.01,2013-08-01 23:19:00,
2013-08-01 18:22:00,74.0,53.7,29.82,East,86,0.0,2.0,49,0.00,,---,0.01,VWS V14.01,2013-08-01 23:22:00,
2013-08-01 18:24:00,73.9,54.1,29.82,NNE,23,0.0,0.0,50,0.00,,---,0.01,VWS V14.01,2013-08-01 23:24:00,
2013-08-01 18:25:00,73.9,54.1,29.82,NNE,23,0.0,0.0,50,0.00,,---,0.01,VWS V14.01,2013-08-01 23:25:00,
2013-08-01 18:29:00,73.7,54.5,29.82,NNE,32,0.0,1.0,51,0.00,,---,0.01,VWS V14.01,2013-08-01 23:29:00,
2013-08-01 18:30:00,73.5,54.3,29.82,NNE,32,0.0,1.0,51,0.00,,---,0.01,VWS V14.01,2013-08-01 23:30:00,
2013-08-01 18:31:00,73.5,53.7,29.82,NNE,32,0.0,2.0,50,0.00,,---,0.01,VWS V14.01,2013-08-01 23:31:00,
2013-08-01 18:35:00,73.3,53.6,29.82,NNE,32,0.0,0.0,50,0.00,,---,0.01,VWS V14.01,2013-08-01 23:35:00,
2013-08-01 18:37:00,73.3,53.6,29.82,NNE,32,0.0,1.0,50,0.00,,---,0.01,VWS V14.01,2013-08-01 23:37:00,
2013-08-01 18:40:00,73.3,54.6,29.82,NNE,32,0.0,0.0,52,0.00,,---,0.01,VWS V14.01,2013-08-01 23:40:00,
2013-08-01 18:42:00,73.2,54.0,29.82,NNE,32,0.0,0.0,51,0.00,,---,0.01,VWS V14.01,2013-08-01 23:42:00,
2013-08-01 18:45:00,73.2,54.0,29.82,NNE,32,0.0,0.0,51,0.00,,---,0.01,VWS V14.01,2013-08-01 23:45:00,
2013-08-01 18:47:00,73.0,54.4,29.82,NNE,32,0.0,0.0,52,0.00,,---,0.01,VWS V14.01,2013-08-01 23:47:00,
2013-08-01 18:48:00,73.0,54.4,29.82,NNE,32,0.0,0.0,52,0.00,,---,0.01,VWS V14.01,2013-08-01 23:48:00,
2013-08-01 18:51:00,72.8,54.7,29.82,NNE,32,0.0,0.0,53,0.00,,---,0.01,VWS V14.01,2013-08-01 23:51:00,
2013-08-01 18:52:00,72.8,55.2,29.82,NNE,32,0.0,0.0,54,0.00,,---,0.01,VWS V14.01,2013-08-01 23:52:00,
2013-08-01 18:54:00,72.7,55.1,29.82,ENE,63,0.0,1.0,54,0.00,,---,0.01,VWS V14.01,2013-08-01 23:54:00,
2013-08-01 18:57:00,72.5,54.4,29.82,ENE,63,0.0,0.0,53,0.00,,---,0.01,VWS V14.01,2013-08-01 23:57:00,
2013-08-01 19:02:00,72.1,54.6,29.82,ENE,63,0.0,0.0,54,0.00,,---,0.01,VWS V14.01,2013-08-02 00:02:00,
2013-08-01 19:03:00,72.1,54.6,29.82,ENE,63,0.0,0.0,54,0.00,,---,0.01,VWS V14.01,2013-08-02 00:03:00,
2013-08-01 19:08:00,71.8,54.8,29.82,ENE,63,0.0,0.0,55,0.00,,---,0.01,VWS V14.01,2013-08-02 00:08:00,
2013-08-01 19:09:00,71.8,55.3,29.82,ENE,63,0.0,0.0,56,0.00,,---,0.01,VWS V14.01,2013-08-02 00:09:00,
2013-08-01 19:13:00,71.5,55.0,29.82,ENE,63,0.0,0.0,56,0.00,,---,0.01,VWS V14.01,2013-08-02 00:13:00,
2013-08-01 19:15:00,71.3,54.8,29.82,ENE,63,0.0,0.0,56,0.00,,---,0.01,VWS V14.01,2013-08-02 00:15:00,
2013-08-01 19:17:00,71.3,54.8,29.82,ENE,63,0.0,0.0,56,0.00,,---,0.01,VWS V14.01,2013-08-02 00:17:00,
2013-08-01 19:20:00,70.9,54.9,29.82,ENE,63,0.0,0.0,57,0.00,,---,0.01,VWS V14.01,2013-08-02 00:20:00,
2013-08-01 19:22:00,70.9,54.9,29.82,ENE,63,0.0,0.0,57,0.00,,---,0.01,VWS V14.01,2013-08-02 00:22:00,
2013-08-01 19:25:00,70.8,55.3,29.82,ENE,63,0.0,0.0,58,0.00,,---,0.01,VWS V14.01,2013-08-02 00:25:00,
2013-08-01 19:26:00,70.8,55.3,29.82,ENE,63,0.0,0.0,58,0.00,,---,0.01,VWS V14.01,2013-08-02 00:26:00,
2013-08-01 19:28:00,70.6,55.1,29.82,ENE,63,0.0,0.0,58,0.00,,---,0.01,VWS V14.01,2013-08-02 00:28:00,
2013-08-01 19:30:00,70.4,55.4,29.83,ENE,63,0.0,0.0,59,0.00,,---,0.01,VWS V14.01,2013-08-02 00:30:00,
2013-08-01 19:33:00,70.3,55.3,29.83,ENE,63,0.0,0.0,59,0.00,,---,0.01,VWS V14.01,2013-08-02 00:33:00,
2013-08-01 19:37:00,70.1,55.1,29.83,ENE,63,0.0,0.0,59,0.00,,---,0.01,VWS V14.01,2013-08-02 00:37:00,
2013-08-01 19:38:00,69.9,55.4,29.83,ENE,63,0.0,0.0,60,0.00,,---,0.01,VWS V14.01,2013-08-02 00:38:00,
2013-08-01 19:40:00,69.8,55.3,29.83,ENE,63,0.0,0.0,60,0.00,,---,0.01,VWS V14.01,2013-08-02 00:40:00,
2013-08-01 19:43:00,69.6,55.1,29.83,ENE,63,0.0,0.0,60,0.00,,---,0.01,VWS V14.01,2013-08-02 00:43:00,
2013-08-01 19:44:00,69.4,54.9,29.83,ENE,63,0.0,0.0,60,0.00,,---,0.01,VWS V14.01,2013-08-02 00:44:00,
2013-08-01 19:45:00,69.4,54.9,29.83,ENE,63,0.0,0.0,60,0.00,,---,0.01,VWS V14.01,2013-08-02 00:45:00,
2013-08-01 19:49:00,69.3,55.7,29.83,ENE,63,0.0,0.0,62,0.00,,---,0.01,VWS V14.01,2013-08-02 00:49:00,
2013-08-01 19:50:00,69.1,55.5,29.83,ENE,63,0.0,0.0,62,0.00,,---,0.01,VWS V14.01,2013-08-02 00:50:00,
2013-08-01 19:52:00,68.9,55.4,29.83,ENE,63,0.0,0.0,62,0.00,,---,0.01,VWS V14.01,2013-08-02 00:52:00,
2013-08-01 19:57:00,68.4,54.9,29.83,ENE,63,0.0,0.0,62,0.00,,---,0.01,VWS V14.01,2013-08-02 00:57:00,
2013-08-01 19:58:00,68.4,54.9,29.83,ENE,63,0.0,0.0,62,0.00,,---,0.01,VWS V14.01,2013-08-02 00:58:00,
2013-08-01 20:00:00,68.3,55.2,29.84,ENE,63,0.0,0.0,63,0.00,,---,0.01,VWS V14.01,2013-08-02 01:00:00,
2013-08-01 20:03:00,67.9,54.8,29.84,ENE,63,0.0,0.0,63,0.00,,---,0.01,VWS V14.01,2013-08-02 01:03:00,
2013-08-01 20:04:00,67.9,54.8,29.84,ENE,63,0.0,0.0,63,0.00,,---,0.01,VWS V14.01,2013-08-02 01:04:00,
2013-08-01 20:06:00,67.8,54.8,29.84,ENE,63,0.0,0.0,63,0.00,,---,0.01,VWS V14.01,2013-08-02 01:06:00,
2013-08-01 20:09:00,67.4,54.8,29.84,ENE,63,0.0,0.0,64,0.00,,---,0.01,VWS V14.01,2013-08-02 01:09:00,
2013-08-01 20:10:00,67.4,55.2,29.84,ENE,63,0.0,0.0,65,0.00,,---,0.01,VWS V14.01,2013-08-02 01:10:00,
2013-08-01 20:12:00,67.3,55.2,29.84,ENE,63,0.0,0.0,65,0.00,,---,0.01,VWS V14.01,2013-08-02 01:12:00,
2013-08-01 20:13:00,67.1,55.0,29.84,ENE,63,0.0,0.0,65,0.00,,---,0.01,VWS V14.01,2013-08-02 01:13:00,
2013-08-01 20:15:00,66.9,54.8,29.84,ENE,63,0.0,0.0,65,0.00,,---,0.01,VWS V14.01,2013-08-02 01:15:00,
2013-08-01 20:19:00,66.8,54.7,29.84,ENE,63,0.0,0.0,65,0.00,,---,0.01,VWS V14.01,2013-08-02 01:19:00,
2013-08-01 20:21:00,66.6,54.5,29.84,ENE,63,0.0,0.0,65,0.00,,---,0.01,VWS V14.01,2013-08-02 01:21:00,
2013-08-01 20:22:00,66.4,54.7,29.84,ENE,63,0.0,0.0,66,0.00,,---,0.01,VWS V14.01,2013-08-02 01:22:00,
2013-08-01 20:23:00,66.4,54.7,29.84,ENE,63,0.0,0.0,66,0.00,,---,0.01,VWS V14.01,2013-08-02 01:23:00,
2013-08-01 20:25:00,66.3,54.6,29.84,ENE,63,0.0,0.0,66,0.00,,---,0.01,VWS V14.01,2013-08-02 01:25:00,
2013-08-01 20:27:00,66.1,54.4,29.84,ENE,63,0.0,0.0,66,0.00,,---,0.01,VWS V14.01,2013-08-02 01:27:00,
2013-08-01 20:29:00,66.0,54.7,29.84,ENE,63,0.0,0.0,67,0.00,,---,0.01,VWS V14.01,2013-08-02 01:29:00,
2013-08-01 20:30:00,66.0,54.7,29.84,ENE,63,0.0,0.0,67,0.00,,---,0.01,VWS V14.01,2013-08-02 01:30:00,
2013-08-01 20:33:00,65.6,54.8,29.84,ENE,63,0.0,0.0,68,0.00,,---,0.01,VWS V14.01,2013-08-02 01:33:00,
2013-08-01 20:35:00,65.6,54.8,29.84,ENE,63,0.0,0.0,68,0.00,,---,0.01,VWS V14.01,2013-08-02 01:35:00,
2013-08-01 20:39:00,65.5,55.1,29.84,ENE,63,0.0,0.0,69,0.00,,---,0.01,VWS V14.01,2013-08-02 01:39:00,
2013-08-01 20:40:00,65.2,55.2,29.84,ENE,63,0.0,0.0,70,0.00,,---,0.01,VWS V14.01,2013-08-02 01:40:00,
2013-08-01 20:41:00,65.2,55.2,29.84,ENE,63,0.0,0.0,70,0.00,,---,0.01,VWS V14.01,2013-08-02 01:41:00,
2013-08-01 20:45:00,64.8,55.2,29.84,ENE,63,0.0,0.0,71,0.00,,---,0.01,VWS V14.01,2013-08-02 01:45:00,
2013-08-01 20:46:00,64.8,55.2,29.84,ENE,63,0.0,0.0,71,0.00,,---,0.01,VWS V14.01,2013-08-02 01:46:00,
2013-08-01 20:47:00,64.7,55.5,29.84,ENE,63,0.0,0.0,72,0.00,,---,0.01,VWS V14.01,2013-08-02 01:47:00,
2013-08-01 20:48:00,64.7,55.5,29.84,ENE,63,0.0,0.0,72,0.00,,---,0.01,VWS V14.01,2013-08-02 01:48:00,
2013-08-01 20:50:00,64.5,55.3,29.84,ENE,63,0.0,0.0,72,0.00,,---,0.01,VWS V14.01,2013-08-02 01:50:00,
2013-08-01 20:51:00,64.3,55.1,29.84,ENE,63,0.0,0.0,72,0.00,,---,0.01,VWS V14.01,2013-08-02 01:51:00,
2013-08-01 20:52:00,64.3,55.5,29.84,ENE,63,0.0,0.0,73,0.00,,---,0.01,VWS V14.01,2013-08-02 01:52:00,
2013-08-01 20:54:00,64.2,55.4,29.84,ENE,63,0.0,0.0,73,0.00,,---,0.01,VWS V14.01,2013-08-02 01:54:00,
2013-08-01 20:56:00,64.0,55.6,29.84,ENE,63,0.0,0.0,74,0.00,,---,0.01,VWS V14.01,2013-08-02 01:56:00,
2013-08-01 20:57:00,63.9,55.5,29.84,ENE,63,0.0,0.0,74,0.00,,---,0.01,VWS V14.01,2013-08-02 01:57:00,
2013-08-01 20:58:00,63.9,55.5,29.84,ENE,63,0.0,0.0,74,0.00,,---,0.01,VWS V14.01,2013-08-02 01:58:00,
2013-08-01 20:59:00,63.7,55.3,29.84,ENE,63,0.0,0.0,74,0.00,,---,0.01,VWS V14.01,2013-08-02 01:59:00,
2013-08-01 21:03:00,63.4,55.3,29.84,ENE,63,0.0,0.0,75,0.00,,---,0.01,VWS V14.01,2013-08-02 02:03:00,
2013-08-01 21:05:00,63.4,55.3,29.84,ENE,63,0.0,0.0,75,0.00,,---,0.01,VWS V14.01,2013-08-02 02:05:00,
2013-08-01 21:07:00,63.2,55.2,29.84,ENE,63,0.0,0.0,75,0.00,,---,0.01,VWS V14.01,2013-08-02 02:07:00,
2013-08-01 21:09:00,63.1,55.4,29.84,ENE,63,0.0,0.0,76,0.00,,---,0.01,VWS V14.01,2013-08-02 02:09:00,
2013-08-01 21:10:00,63.1,55.4,29.84,ENE,63,0.0,0.0,76,0.00,,---,0.01,VWS V14.01,2013-08-02 02:10:00,
2013-08-01 21:11:00,62.9,55.2,29.84,ENE,63,0.0,0.0,76,0.00,,---,0.01,VWS V14.01,2013-08-02 02:11:00,
2013-08-01 21:15:00,62.7,55.4,29.84,ENE,63,0.0,0.0,77,0.00,,---,0.01,VWS V14.01,2013-08-02 02:15:00,
2013-08-01 21:16:00,62.7,55.4,29.84,ENE,63,0.0,0.0,77,0.00,,---,0.01,VWS V14.01,2013-08-02 02:16:00,
2013-08-01 21:18:00,62.6,55.7,29.84,ENE,63,0.0,0.0,78,0.00,,---,0.01,VWS V14.01,2013-08-02 02:18:00,
2013-08-01 21:22:00,62.4,55.8,29.84,ENE,63,0.0,0.0,79,0.00,,---,0.01,VWS V14.01,2013-08-02 02:22:00,
2013-08-01 21:24:00,62.4,56.2,29.84,ENE,63,0.0,0.0,80,0.00,,---,0.01,VWS V14.01,2013-08-02 02:24:00,
2013-08-01 21:29:00,62.1,55.9,29.84,ENE,63,0.0,0.0,80,0.00,,---,0.01,VWS V14.01,2013-08-02 02:29:00,
2013-08-01 21:30:00,62.1,55.9,29.84,ENE,63,0.0,0.0,80,0.00,,---,0.01,VWS V14.01,2013-08-02 02:30:00,
2013-08-01 21:32:00,62.0,55.8,29.84,ENE,63,0.0,0.0,80,0.00,,---,0.01,VWS V14.01,2013-08-02 02:32:00,
2013-08-01 21:35:00,61.8,55.6,29.84,ENE,63,0.0,0.0,80,0.00,,---,0.01,VWS V14.01,2013-08-02 02:35:00,
2013-08-01 21:36:00,61.8,55.6,29.84,ENE,63,0.0,0.0,80,0.00,,---,0.01,VWS V14.01,2013-08-02 02:36:00,
2013-08-01 21:37:00,61.8,55.6,29.84,ENE,63,0.0,0.0,80,0.00,,---,0.01,VWS V14.01,2013-08-02 02:37:00,
2013-08-01 21:38:00,61.6,55.4,29.84,ENE,63,0.0,0.0,80,0.00,,---,0.01,VWS V14.01,2013-08-02 02:38:00,
2013-08-01 21:42:00,61.5,55.3,29.84,ENE,63,0.0,0.0,80,0.00,,---,0.01,VWS V14.01,2013-08-02 02:42:00,
2013-08-01 21:43:00,61.5,55.3,29.84,ENE,63,0.0,0.0,80,0.00,,---,0.01,VWS V14.01,2013-08-02 02:43:00,
2013-08-01 21:45:00,61.3,55.1,29.84,ENE,63,0.0,0.0,80,0.00,,---,0.01,VWS V14.01,2013-08-02 02:45:00,
2013-08-01 21:47:00,61.3,55.1,29.84,ENE,63,0.0,0.0,80,0.00,,---,0.01,VWS V14.01,2013-08-02 02:47:00,
2013-08-01 21:49:00,61.2,55.3,29.84,ENE,63,0.0,0.0,81,0.00,,---,0.01,VWS V14.01,2013-08-02 02:49:00,
2013-08-01 21:52:00,61.2,55.7,29.84,ENE,63,0.0,0.0,82,0.00,,---,0.01,VWS V14.01,2013-08-02 02:52:00,
2013-08-01 21:55:00,61.0,55.5,29.84,ENE,63,0.0,0.0,82,0.00,,---,0.01,VWS V14.01,2013-08-02 02:55:00,
2013-08-01 21:57:00,61.0,55.8,29.84,ENE,63,0.0,0.0,83,0.00,,---,0.01,VWS V14.01,2013-08-02 02:57:00,
2013-08-01 22:00:00,60.9,55.7,29.84,ENE,63,0.0,0.0,83,0.00,,---,0.01,VWS V14.01,2013-08-02 03:00:00,
2013-08-01 22:01:00,60.9,55.7,29.84,ENE,63,0.0,0.0,83,0.00,,---,0.01,VWS V14.01,2013-08-02 03:01:00,
2013-08-01 22:04:00,60.7,55.5,29.84,ENE,63,0.0,0.0,83,0.00,,---,0.01,VWS V14.01,2013-08-02 03:04:00,
2013-08-01 22:05:00,60.7,55.5,29.84,ENE,63,0.0,0.0,83,0.00,,---,0.01,VWS V14.01,2013-08-02 03:05:00,
2013-08-01 22:07:00,60.7,55.8,29.84,ENE,63,0.0,0.0,84,0.00,,---,0.01,VWS V14.01,2013-08-02 03:07:00,
2013-08-01 22:10:00,60.5,55.7,29.84,ENE,63,0.0,0.0,84,0.00,,---,0.01,VWS V14.01,2013-08-02 03:10:00,
2013-08-01 22:12:00,60.4,55.5,29.84,ENE,63,0.0,0.0,84,0.00,,---,0.01,VWS V14.01,2013-08-02 03:12:00,
2013-08-01 22:13:00,60.4,55.5,29.84,ENE,63,0.0,0.0,84,0.00,,---,0.01,VWS V14.01,2013-08-02 03:13:00,
2013-08-01 22:17:00,60.2,55.7,29.84,ENE,63,0.0,0.0,85,0.00,,---,0.01,VWS V14.01,2013-08-02 03:17:00,
2013-08-01 22:22:00,60.1,55.6,29.84,ENE,63,0.0,0.0,85,0.00,,---,0.01,VWS V14.01,2013-08-02 03:22:00,
2013-08-01 22:24:00,60.1,55.6,29.84,ENE,63,0.0,0.0,85,0.00,,---,0.01,VWS V14.01,2013-08-02 03:24:00,
2013-08-01 22:27:00,59.9,55.7,29.84,ENE,63,0.0,0.0,86,0.00,,---,0.01,VWS V14.01,2013-08-02 03:27:00,
2013-08-01 22:31:00,59.9,55.7,29.85,ENE,63,0.0,0.0,86,0.00,,---,0.01,VWS V14.01,2013-08-02 03:31:00,
2013-08-01 22:32:00,59.8,55.6,29.85,ENE,63,0.0,0.0,86,0.00,,---,0.01,VWS V14.01,2013-08-02 03:32:00,
2013-08-01 22:33:00,59.8,55.6,29.85,ENE,63,0.0,0.0,86,0.00,,---,0.01,VWS V14.01,2013-08-02 03:33:00,
2013-08-01 22:36:00,59.6,55.4,29.85,ENE,63,0.0,0.0,86,0.00,,---,0.01,VWS V14.01,2013-08-02 03:36:00,
2013-08-01 22:37:00,59.6,55.4,29.85,ENE,63,0.0,0.0,86,0.00,,---,0.01,VWS V14.01,2013-08-02 03:37:00,
2013-08-01 22:38:00,59.6,55.4,29.85,ENE,63,0.0,0.0,86,0.00,,---,0.01,VWS V14.01,2013-08-02 03:38:00,
2013-08-01 22:42:00,59.6,55.7,29.85,ENE,63,0.0,0.0,87,0.00,,---,0.01,VWS V14.01,2013-08-02 03:42:00,
2013-08-01 22:43:00,59.5,55.6,29.85,ENE,63,0.0,0.0,87,0.00,,---,0.01,VWS V14.01,2013-08-02 03:43:00,
2013-08-01 22:44:00,59.5,55.6,29.85,ENE,63,0.0,0.0,87,0.00,,---,0.01,VWS V14.01,2013-08-02 03:44:00,
2013-08-01 22:45:00,59.5,55.6,29.85,ENE,63,0.0,0.0,87,0.00,,---,0.01,VWS V14.01,2013-08-02 03:45:00,
2013-08-01 22:47:00,59.3,55.4,29.85,ENE,63,0.0,0.0,87,0.00,,---,0.01,VWS V14.01,2013-08-02 03:47:00,
2013-08-01 22:50:00,59.3,55.4,29.85,ENE,63,0.0,0.0,87,0.00,,---,0.01,VWS V14.01,2013-08-02 03:50:00,
2013-08-01 22:52:00,59.3,55.4,29.85,ENE,63,0.0,0.0,87,0.00,,---,0.01,VWS V14.01,2013-08-02 03:52:00,
2013-08-01 22:54:00,59.3,55.8,29.85,ENE,63,0.0,0.0,88,0.00,,---,0.01,VWS V14.01,2013-08-02 03:54:00,
2013-08-01 22:56:00,59.2,55.7,29.85,ENE,63,0.0,0.0,88,0.00,,---,0.01,VWS V14.01,2013-08-02 03:56:00,
2013-08-01 22:57:00,59.2,55.7,29.85,ENE,63,0.0,0.0,88,0.00,,---,0.01,VWS V14.01,2013-08-02 03:57:00,
2013-08-01 22:58:00,59.2,55.7,29.85,ENE,63,0.0,0.0,88,0.00,,---,0.01,VWS V14.01,2013-08-02 03:58:00,
2013-08-01 22:59:00,59.2,55.7,29.85,ENE,63,0.0,0.0,88,0.00,,---,0.01,VWS V14.01,2013-08-02 03:59:00,
2013-08-01 23:01:00,59.0,55.5,29.85,ENE,63,0.0,0.0,88,0.00,,---,0.01,VWS V14.01,2013-08-02 04:01:00,
2013-08-01 23:02:00,59.0,55.5,29.85,ENE,63,0.0,0.0,88,0.00,,---,0.01,VWS V14.01,2013-08-02 04:02:00,
2013-08-01 23:04:00,59.0,55.5,29.85,ENE,63,0.0,0.0,88,0.00,,---,0.01,VWS V14.01,2013-08-02 04:04:00,
2013-08-01 23:05:00,59.0,55.5,29.85,ENE,63,0.0,0.0,88,0.00,,---,0.01,VWS V14.01,2013-08-02 04:05:00,
2013-08-01 23:06:00,58.9,55.4,29.85,ENE,63,0.0,0.0,88,0.00,,---,0.01,VWS V14.01,2013-08-02 04:06:00,
2013-08-01 23:08:00,58.9,55.4,29.85,ENE,63,0.0,0.0,88,0.00,,---,0.01,VWS V14.01,2013-08-02 04:08:00,
2013-08-01 23:11:00,58.9,55.7,29.85,ENE,63,0.0,0.0,89,0.00,,---,0.01,VWS V14.01,2013-08-02 04:11:00,
2013-08-01 23:12:00,58.9,55.7,29.85,ENE,63,0.0,0.0,89,0.00,,---,0.01,VWS V14.01,2013-08-02 04:12:00,
2013-08-01 23:14:00,58.7,55.5,29.85,ENE,63,0.0,0.0,89,0.00,,---,0.01,VWS V14.01,2013-08-02 04:14:00,
2013-08-01 23:17:00,58.7,55.5,29.85,ENE,63,0.0,0.0,89,0.00,,---,0.01,VWS V14.01,2013-08-02 04:17:00,
2013-08-01 23:19:00,58.7,55.5,29.85,ENE,63,0.0,0.0,89,0.00,,---,0.01,VWS V14.01,2013-08-02 04:19:00,
2013-08-01 23:20:00,58.7,55.5,29.85,ENE,63,0.0,0.0,89,0.00,,---,0.01,VWS V14.01,2013-08-02 04:20:00,
2013-08-01 23:21:00,58.7,55.5,29.85,ENE,63,0.0,0.0,89,0.00,,---,0.01,VWS V14.01,2013-08-02 04:21:00,
2013-08-01 23:22:00,58.7,55.5,29.85,ENE,63,0.0,0.0,89,0.00,,---,0.01,VWS V14.01,2013-08-02 04:22:00,
2013-08-01 23:24:00,58.6,55.4,29.85,ENE,63,0.0,0.0,89,0.00,,---,0.01,VWS V14.01,2013-08-02 04:24:00,
2013-08-01 23:27:00,58.4,55.2,29.85,ENE,63,0.0,0.0,89,0.00,,---,0.01,VWS V14.01,2013-08-02 04:27:00,
2013-08-01 23:28:00,58.4,55.2,29.85,ENE,63,0.0,0.0,89,0.00,,---,0.01,VWS V14.01,2013-08-02 04:28:00,
2013-08-01 23:29:00,58.4,55.2,29.85,ENE,63,0.0,0.0,89,0.00,,---,0.01,VWS V14.01,2013-08-02 04:29:00,
2013-08-01 23:30:00,58.4,55.2,29.85,ENE,63,0.0,0.0,89,0.00,,---,0.01,VWS V14.01,2013-08-02 04:30:00,
2013-08-01 23:34:00,58.3,55.4,29.85,ENE,63,0.0,0.0,90,0.00,,---,0.01,VWS V14.01,2013-08-02 04:34:00,
2013-08-01 23:35:00,58.3,55.4,29.85,ENE,63,0.0,0.0,90,0.00,,---,0.01,VWS V14.01,2013-08-02 04:35:00,
2013-08-01 23:37:00,58.3,55.4,29.85,ENE,63,0.0,0.0,90,0.00,,---,0.01,VWS V14.01,2013-08-02 04:37:00,
2013-08-01 23:39:00,58.1,55.2,29.85,ENE,63,0.0,0.0,90,0.00,,---,0.01,VWS V14.01,2013-08-02 04:39:00,
2013-08-01 23:40:00,58.1,55.2,29.85,ENE,63,0.0,0.0,90,0.00,,---,0.01,VWS V14.01,2013-08-02 04:40:00,
2013-08-01 23:41:00,58.1,55.2,29.85,ENE,63,0.0,0.0,90,0.00,,---,0.01,VWS V14.01,2013-08-02 04:41:00,
2013-08-01 23:43:00,58.1,55.2,29.85,ENE,63,0.0,0.0,90,0.00,,---,0.01,VWS V14.01,2013-08-02 04:43:00,
2013-08-01 23:45:00,58.0,55.1,29.84,ENE,63,0.0,0.0,90,0.00,,---,0.01,VWS V14.01,2013-08-02 04:45:00,
2013-08-01 23:47:00,58.0,55.1,29.84,ENE,63,0.0,0.0,90,0.00,,---,0.01,VWS V14.01,2013-08-02 04:47:00,
2013-08-01 23:48:00,58.0,55.1,29.84,ENE,63,0.0,0.0,90,0.00,,---,0.01,VWS V14.01,2013-08-02 04:48:00,
2013-08-01 23:51:00,58.0,55.4,29.84,ENE,63,0.0,0.0,91,0.00,,---,0.01,VWS V14.01,2013-08-02 04:51:00,
2013-08-01 23:53:00,57.8,55.2,29.84,ENE,63,0.0,0.0,91,0.00,,---,0.01,VWS V14.01,2013-08-02 04:53:00,
2013-08-01 23:54:00,57.8,55.2,29.84,ENE,63,0.0,0.0,91,0.00,,---,0.01,VWS V14.01,2013-08-02 04:54:00,
2013-08-01 23:55:00,57.8,55.2,29.84,ENE,63,0.0,0.0,91,0.00,,---,0.01,VWS V14.01,2013-08-02 04:55:00,
2013-08-01 23:58:00,57.8,55.2,29.84,ENE,63,0.0,0.0,91,0.00,,---,0.01,VWS V14.01,2013-08-02 04:58:00,
2013-08-01 23:59:00,57.8,55.2,29.84,ENE,63,0.0,0.0,91,0.00,,---,0.01,VWS V14.01,2013-08-02 04:59:00,